GFSSGP_925_thetae_000.txt.gz
Theta_e
312 311 314 314 318 320 320 319 319 318 319 326 332 335 338 338 340 341 341 341 340 342 339 336 328 324 321 329 336 340 339 341 342 341 341 341 340 339 337 337 338 338 337 337 336 335 336 336 334
312 310 312 316 319 320 320 319 319 318 316 317 327 336 334 339 338 340 340 341 339 340 339 337 328 323 318 314 323 334 337 337 322 340 340 340 340 335 325 336 337 338 337 338 336 335 336 339 338
311 307 315 317 319 320 321 318 316 314 314 318 331 334 336 340 340 340 340 340 342 340 339 336 329 326 322 317 314 321 330 336 338 339 340 340 338 336 330 336 338 338 337 338 339 338 339 338 338
312 312 313 316 316 314 315 315 313 314 319 324 331 337 337 331 339 341 340 340 340 341 339 337 333 329 326 321 317 315 323 326 332 335 336 338 337 338 337 338 337 338 338 336 337 338 337 337 335
311 314 314 315 314 314 314 314 314 319 325 328 330 336 339 331 338 340 340 339 339 339 339 339 335 334 332 328 322 320 322 324 326 330 331 331 336 338 338 337 337 337 337 336 336 335 335 334 333
314 314 315 314 314 313 314 314 318 323 324 326 333 335 335 334 336 339 340 339 337 337 337 338 336 335 333 333 331 327 326 328 329 328 326 329 330 331 332 331 331 332 333 332 332 331 331 330 330
314 315 314 314 314 314 313 314 317 318 323 324 324 332 335 330 326 336 337 336 334 333 334 335 336 334 333 332 332 332 330 329 330 331 329 325 324 326 325 324 329 331 334 335 334 332 331 330 327
313 315 313 313 313 313 313 316 317 318 319 317 319 329 334 327 329 328 331 333 332 331 331 333 335 335 335 334 329 329 330 331 330 330 331 330 328 328 331 329 328 329 331 331 331 331 331 329 326
312 314 314 313 313 313 314 314 318 318 320 320 320 324 325 325 325 330 330 329 328 326 326 331 334 333 332 329 326 328 328 328 329 331 330 330 331 329 329 328 328 328 326 327 328 329 329 326 323
314 314 314 315 315 314 314 315 316 318 320 322 323 320 321 324 327 327 325 323 320 319 318 322 328 330 329 325 325 333 333 332 331 331 330 329 325 325 327 324 321 320 319 322 327 328 327 325 326
316 316 314 317 317 317 314 315 316 317 317 320 323 322 320 320 320 319 317 316 316 316 316 317 320 324 327 328 329 330 330 330 327 327 326 323 321 320 321 321 319 320 319 317 315 326 325 326 327
317 318 318 318 315 315 315 316 315 316 317 318 321 320 318 318 317 315 314 313 314 315 313 312 316 321 322 323 324 324 323 321 321 324 326 326 325 323 320 321 321 321 318 314 315 315 317 320 327
318 318 319 318 316 316 315 316 316 316 315 315 315 315 315 315 314 312 311 311 311 312 312 310 312 315 317 319 318 317 316 315 315 316 319 321 322 323 321 314 311 313 314 313 314 315 320 322 321
320 320 321 320 319 318 318 318 316 317 315 315 314 315 314 313 312 311 310 311 310 309 309 308 309 311 312 315 314 312 310 309 309 310 313 316 317 321 323 320 319 321 322 323 322 320 319 321 322
319 320 320 319 319 319 317 319 318 316 315 315 315 315 314 313 311 311 311 311 309 307 306 306 306 307 308 309 308 307 306 305 306 309 312 313 314 316 317 316 315 315 318 320 322 324 324 324 324
319 318 317 317 316 317 316 315 317 317 316 316 316 316 314 313 311 310 309 309 307 306 305 305 303 305 306 306 306 305 305 305 306 309 309 309 309 309 310 311 312 313 314 315 316 317 320 321 322
316 316 316 315 316 315 315 315 315 316 315 315 315 317 316 314 312 310 308 307 306 305 304 304 304 304 304 304 304 305 305 304 305 306 306 306 305 305 305 306 307 306 306 308 308 309 312 313 315
316 316 316 316 314 314 315 315 315 315 314 315 315 315 316 315 314 311 308 306 306 304 303 304 303 303 303 303 303 303 304 304 304 304 304 304 303 303 302 303 304 303 302 301 301 302 303 306 311
316 316 316 315 314 314 315 316 316 316 315 315 315 315 315 316 314 311 308 307 305 304 303 303 303 303 302 303 303 303 303 303 304 303 302 303 302 302 302 302 302 302 302 302 301 300 300 301 304
316 317 317 315 315 314 316 316 316 314 314 314 315 315 315 314 313 310 309 307 306 305 304 304 303 303 303 303 303 303 303 302 302 302 303 303 302 302 301 301 301 301 301 301 301 301 300 300 301
317 317 316 316 316 316 315 317 317 315 315 314 314 314 313 313 313 311 309 308 307 306 305 304 304 303 302 302 302 302 301 301 302 302 302 303 303 303 303 302 301 301 301 301 301 300 300 300 299
318 314 314 315 316 318 314 318 318 316 316 315 315 315 314 313 311 310 309 308 307 307 306 305 304 303 302 302 302 302 302 302 302 301 302 302 302 302 302 302 302 302 301 301 300 299 300 300 300
316 314 315 314 315 315 316 317 319 317 316 315 315 314 314 313 311 311 309 308 307 307 306 305 303 303 302 302 302 302 302 301 301 301 301 301 301 301 301 301 302 302 302 301 301 301 300 299 299
312 316 317 314 316 320 317 317 319 317 316 316 315 315 314 313 312 311 308 306 307 306 306 305 304 303 302 302 301 301 301 301 301 300 300 299 299 299 299 299 299 299 299 299 300 300 300 300 300
316 319 325 324 324 323 316 317 319 318 316 315 315 314 313 313 313 312 311 308 306 306 305 304 303 303 302 301 301 301 301 300 299 298 298 297 297 296 296 295 295 295 295 295 296 296 297 298 298
314 316 321 328 323 322 318 319 319 316 315 314 313 313 313 313 314 312 310 308 307 306 305 304 302 302 302 300 300 299 298 297 297 295 295 294 294 293 293 293 293 293 293 293 293 293 294 294 296
317 320 314 317 313 317 319 318 317 317 316 315 315 315 315 314 313 312 310 307 306 306 305 304 303 301 300 299 298 297 296 295 294 294 293 293 292 292 291 291 291 291 292 292 293 293 294 295 295
315 314 320 319 328 326 320 320 320 318 318 316 316 316 314 314 314 313 312 310 308 307 305 303 302 300 299 297 296 296 295 293 293 293 292 292 292 291 291 290 291 291 291 291 291 292 292 293 294
319 319 315 315 318 325 326 322 319 318 318 317 316 315 315 315 314 313 312 310 309 305 302 300 299 299 297 296 295 294 294 293 292 292 292 291 291 290 290 290 290 290 290 290 290 291 291 292 292
316 318 316 321 322 321 320 321 318 318 317 315 315 316 315 315 314 313 312 310 307 302 300 299 298 297 296 295 294 293 293 292 292 292 291 290 290 289 289 289 289 288 288 288 289 289 290 290 291

GFSSGP_925_thetae_003.txt.gz
Theta_e
313 314 314 317 319 319 321 321 321 320 322 331 331 333 338 337 341 346 338 341 342 342 339 337 327 324 325 332 333 336 340 341 342 342 340 340 339 337 338 336 334 335 335 336 336 335 333 334 333
313 311 314 319 319 321 321 321 319 319 318 323 331 330 334 341 337 339 339 342 341 340 339 337 328 323 319 324 329 333 337 341 330 338 341 339 338 331 328 330 326 326 334 332 336 335 335 335 335
313 312 316 318 319 321 322 320 319 317 319 322 329 334 337 340 338 337 339 340 341 340 338 336 329 326 322 319 324 332 336 336 339 340 340 339 338 337 335 327 325 324 334 336 336 335 336 338 337
314 314 317 318 319 319 319 318 318 318 322 323 328 337 336 337 338 337 338 339 341 340 339 335 332 329 325 321 325 328 329 331 333 334 336 337 337 337 336 331 327 331 336 337 336 335 336 337 337
313 317 317 317 316 316 317 318 319 320 326 327 328 334 338 338 340 340 339 339 339 339 340 339 333 333 331 327 321 322 327 329 328 329 331 329 331 336 336 336 334 334 329 327 335 336 335 335 334
316 317 317 317 315 316 317 319 322 323 325 329 331 335 337 337 340 340 338 336 336 337 338 339 336 333 332 331 329 326 326 328 330 329 327 327 325 327 326 328 331 330 331 331 332 331 332 329 327
317 318 317 316 315 315 315 316 317 319 323 325 328 330 337 334 337 338 338 336 334 334 335 336 337 336 335 332 328 329 329 328 328 330 330 328 326 324 329 329 328 331 332 332 332 332 331 330 328
317 316 315 316 316 315 315 317 317 317 316 321 321 327 333 334 336 336 336 337 337 335 334 334 335 335 335 334 330 326 326 328 329 329 329 329 329 329 325 330 330 327 328 327 326 328 329 329 329
317 316 315 315 315 315 315 316 317 318 318 317 319 322 330 333 335 334 334 334 333 330 330 334 335 335 332 329 326 331 330 329 330 330 328 329 333 331 330 327 329 328 325 323 325 326 326 327 326
317 317 316 316 315 316 315 315 316 317 318 320 321 325 329 331 330 331 331 329 325 324 323 325 331 333 332 328 326 332 333 331 331 331 331 329 330 330 329 327 327 326 325 321 319 318 317 325 327
318 316 315 316 316 316 316 315 316 317 317 318 320 323 327 328 328 328 326 323 320 321 320 322 326 330 333 330 331 332 330 330 329 329 328 328 325 325 326 326 326 321 319 318 320 319 318 315 317
318 317 317 318 317 317 317 318 317 317 318 318 319 321 324 325 325 323 320 318 318 319 319 319 325 327 327 327 328 328 327 325 325 326 326 325 324 325 325 325 323 321 320 319 319 318 315 315 315
320 319 320 319 319 319 319 319 319 318 318 318 320 321 322 322 321 318 316 316 316 317 318 317 320 323 325 324 322 321 319 318 318 318 320 321 320 322 322 321 320 319 319 318 318 313 312 314 316
320 321 321 321 320 319 319 318 318 319 319 319 319 319 319 318 317 316 315 315 315 315 315 316 317 318 319 320 319 316 314 313 312 314 316 319 319 320 321 320 319 318 320 321 322 322 323 322 321
321 322 321 320 319 319 318 318 319 318 318 317 318 318 318 318 316 315 315 315 315 313 314 313 313 314 315 315 312 310 309 310 311 313 314 314 314 315 314 313 314 314 316 315 316 319 321 322 322
320 321 317 318 318 318 316 316 317 318 317 317 317 318 318 318 317 315 315 314 314 313 312 311 307 310 310 311 310 309 309 309 311 312 311 311 310 311 311 311 310 309 310 311 312 313 314 317 319
318 318 318 317 317 317 316 317 317 317 317 317 317 317 318 318 317 315 315 313 313 312 310 310 308 309 309 308 308 309 309 308 309 309 308 308 307 306 306 307 307 306 305 305 304 304 307 309 312
318 319 319 319 318 317 318 318 319 319 318 317 317 317 317 317 318 316 315 313 312 311 309 309 308 307 307 307 307 307 307 308 307 307 307 307 306 305 305 305 306 305 304 304 304 303 303 303 304
319 319 321 320 318 318 319 320 319 319 317 317 317 317 317 317 317 316 315 313 311 311 309 308 308 307 306 306 306 306 307 307 307 306 306 306 305 304 305 304 304 304 304 304 304 304 303 303 303
320 321 321 320 319 320 320 320 319 317 317 316 316 317 317 317 317 316 315 313 312 311 310 308 308 307 306 306 306 306 307 306 306 306 306 306 305 305 304 304 304 303 303 304 304 303 303 303 303
320 320 319 320 320 321 320 321 320 317 318 316 317 317 316 315 315 315 314 313 313 312 311 309 308 307 307 306 306 305 305 305 305 305 305 306 306 305 305 305 304 304 304 303 303 303 303 302 302
320 318 319 320 321 322 320 320 320 319 318 317 317 318 317 316 316 314 314 314 313 312 311 310 309 308 307 306 305 305 305 305 305 305 304 304 304 305 305 304 303 303 303 303 303 302 302 302 302
319 318 320 321 321 321 320 320 321 319 318 318 317 317 317 316 316 315 315 314 313 312 311 311 310 308 307 306 305 304 304 305 304 304 304 304 304 303 303 303 302 302 302 302 302 302 302 302 303
317 321 323 322 321 325 324 319 320 321 318 317 317 317 316 316 316 315 314 314 312 312 312 311 310 309 307 306 305 304 304 304 304 303 303 303 301 301 301 300 300 300 300 300 300 300 301 301 301
321 322 328 328 327 327 320 320 321 320 318 317 316 316 316 316 316 316 315 314 313 311 311 311 310 309 308 306 305 304 304 304 303 303 301 300 299 298 298 298 297 296 296 296 296 296 297 297 298
321 320 326 329 326 325 321 321 321 319 317 316 316 316 316 317 316 316 315 314 313 312 311 311 310 309 307 306 305 304 303 303 302 300 299 297 297 297 296 295 295 294 294 294 294 294 295 295 296
322 325 320 322 322 323 322 321 320 321 318 317 317 317 318 317 316 317 316 314 313 312 311 311 311 310 308 306 305 304 302 301 299 298 297 296 296 295 294 294 294 293 293 293 293 294 294 295 295
320 319 324 324 333 329 324 323 323 321 321 319 318 318 317 317 317 316 315 314 313 312 312 311 310 309 308 305 303 301 299 298 296 296 295 295 294 294 294 293 293 292 292 292 293 293 293 294 294
322 324 320 320 322 329 328 324 322 321 321 321 319 318 318 317 316 315 315 313 313 313 311 309 308 307 305 303 301 298 297 296 295 295 294 294 294 293 292 292 292 292 292 292 292 292 292 293 293
318 321 322 325 325 325 328 326 321 321 320 318 319 319 318 316 316 315 314 313 313 312 309 307 305 303 302 300 298 296 296 295 294 294 294 293 293 292 292 291 291 291 291 291 291 291 291 291 291

GFSSGP_925_thetae_006.txt.gz
Theta_e
311 315 316 316 318 318 320 321 321 321 322 330 330 336 339 339 341 347 340 342 341 340 339 331 324 321 324 332 337 340 343 342 341 341 340 340 339 337 336 335 328 329 329 327 333 335 334 332 331
310 315 314 317 318 320 321 321 320 318 319 324 328 335 341 341 339 339 342 341 340 339 337 330 327 322 319 323 333 337 338 338 335 334 339 340 339 337 336 333 325 324 327 326 326 332 335 333 333
312 315 314 317 319 321 322 320 319 318 319 322 328 336 338 340 337 337 341 341 341 339 338 330 328 325 321 319 322 330 333 336 337 339 338 337 337 337 334 333 330 328 329 332 335 333 334 334 335
314 315 314 317 319 319 320 319 318 318 321 321 327 338 339 338 336 338 339 340 340 340 339 331 330 328 324 320 324 326 325 327 328 328 331 336 337 336 336 327 326 327 332 334 335 330 324 333 332
314 315 316 317 316 316 318 319 320 319 325 325 327 337 340 340 339 338 338 338 339 339 340 333 330 330 330 326 321 321 323 323 322 321 325 328 331 336 335 336 335 334 333 331 324 325 322 323 326
315 317 317 317 315 316 318 319 321 323 325 326 330 332 339 338 339 339 337 335 338 339 339 339 334 330 329 329 328 326 324 324 326 326 323 322 325 325 328 331 330 329 330 330 326 325 326 329 327
315 318 317 316 315 315 316 317 318 319 324 323 327 336 332 334 339 338 335 335 333 334 335 337 339 336 336 333 328 327 328 327 327 328 328 327 325 327 325 323 326 328 329 331 331 330 330 330 328
316 317 316 316 316 314 315 316 317 317 316 316 317 326 335 333 337 337 335 335 335 334 334 334 334 337 337 334 327 327 326 327 328 328 329 329 328 328 329 330 327 328 330 329 329 329 330 329 329
317 316 315 315 316 315 315 315 317 317 317 317 318 323 333 335 336 334 334 333 333 330 329 333 335 336 334 332 327 332 332 331 331 330 327 329 332 330 330 328 328 326 325 323 325 324 324 326 326
318 318 316 315 315 316 316 315 316 316 317 318 320 321 327 332 332 331 330 330 327 324 323 324 329 332 333 331 327 333 332 332 332 332 332 331 331 329 328 328 326 324 324 322 321 321 322 319 321
318 316 316 317 316 315 316 316 317 316 317 319 319 322 323 325 326 327 326 324 322 322 321 322 326 331 333 332 331 331 331 330 329 330 329 329 326 326 326 326 327 326 322 317 316 318 319 319 318
318 317 318 318 317 317 318 318 318 318 317 318 319 320 322 324 325 325 324 321 319 320 320 320 325 328 328 328 328 328 328 327 326 327 326 323 324 322 325 324 323 320 320 321 320 316 317 316 318
319 319 320 319 319 319 318 318 319 318 318 318 318 321 322 322 323 322 320 318 317 318 319 318 321 325 327 325 324 323 321 320 319 320 320 322 321 323 322 321 321 320 321 321 320 319 315 314 315
320 320 320 320 319 318 319 318 317 317 319 318 318 320 320 321 321 319 317 316 317 317 317 318 318 321 322 323 322 319 317 315 314 316 318 320 320 321 322 320 319 318 319 319 319 321 321 321 322
320 321 322 321 318 316 318 317 316 319 319 318 317 318 319 319 318 318 317 317 316 316 316 316 317 318 319 320 318 315 313 312 313 315 316 316 317 315 315 314 314 314 314 314 314 315 315 317 319
321 321 319 318 318 318 317 316 318 318 318 317 317 318 318 318 318 318 317 316 316 316 315 314 313 314 314 315 312 311 310 311 312 314 313 312 312 312 312 311 311 308 308 308 307 306 306 311 313
320 319 319 320 319 317 317 317 318 319 318 318 318 318 318 318 318 317 317 316 315 315 314 313 311 309 311 311 311 310 310 309 311 312 311 310 309 308 307 308 307 305 305 305 304 304 303 303 304
320 320 321 321 320 319 319 320 320 320 319 319 319 318 318 317 318 318 317 316 315 314 313 312 311 310 310 309 309 309 309 309 309 309 309 308 307 306 306 306 306 306 305 305 305 305 304 304 304
319 320 321 321 320 320 320 321 320 319 318 318 318 319 319 318 318 317 317 316 314 313 313 311 310 310 309 308 308 308 308 308 308 308 307 307 307 306 305 305 305 305 305 304 304 304 304 303 304
318 320 321 320 320 321 321 321 320 318 318 317 317 318 318 318 318 318 317 316 314 314 313 311 310 310 309 308 308 307 308 308 308 307 307 306 306 305 305 305 304 304 304 304 304 305 304 304 303
318 321 320 320 321 322 321 321 321 318 317 317 318 318 317 317 316 316 316 315 315 314 314 313 311 310 309 308 308 308 307 307 306 306 306 306 306 306 306 305 305 304 304 304 304 303 303 303 304
319 320 320 321 322 323 322 321 320 319 318 318 318 319 318 318 317 316 315 315 315 314 314 313 313 311 310 309 308 307 307 306 306 305 305 305 306 306 306 305 305 304 303 303 303 304 303 303 304
319 319 321 323 324 323 323 320 320 319 318 318 319 319 319 318 317 317 316 315 314 313 314 313 313 312 311 310 309 307 307 306 306 305 305 305 304 304 304 304 303 303 303 302 302 301 301 302 303
319 322 323 325 323 331 325 323 322 320 320 318 318 318 318 318 317 316 316 315 315 314 312 312 312 312 312 311 309 308 306 306 306 305 305 304 303 302 301 301 300 299 299 299 298 298 298 298 299
321 323 332 335 336 333 323 322 323 322 320 318 318 317 318 317 317 317 316 316 315 314 313 313 312 312 312 311 311 308 307 305 305 305 304 302 302 300 299 298 297 297 296 296 295 295 295 296 297
321 322 332 331 329 327 322 322 321 320 319 318 317 317 317 318 318 317 318 317 315 314 314 313 312 312 312 311 311 310 307 306 305 304 303 300 298 298 298 297 296 295 294 294 294 294 294 295 295
321 324 321 324 324 328 324 323 323 322 320 319 319 319 319 318 318 318 317 316 315 314 314 313 313 313 312 311 311 309 307 305 304 302 300 298 297 296 296 295 295 294 294 294 294 294 294 294 294
320 321 325 328 333 328 323 324 324 324 323 322 321 321 320 320 318 317 316 315 314 314 314 313 313 311 310 309 309 307 305 303 301 298 297 296 296 295 295 294 293 293 293 293 293 293 293 293 294
321 323 324 323 326 330 330 325 322 322 322 323 321 320 319 319 318 317 316 314 313 313 312 311 310 308 307 306 305 303 301 300 298 296 296 295 295 294 294 293 293 292 292 292 292 292 292 292 292
319 322 322 328 327 326 326 326 321 322 322 321 321 319 319 318 316 315 314 313 313 313 312 312 309 306 305 304 302 300 299 297 296 295 295 295 294 294 293 292 292 292 292 292 291 291 291 291 291

GFSSGP_925_thetae_009.txt.gz
Theta_e
308 313 314 315 312 310 312 315 315 316 321 333 336 339 340 338 341 346 341 340 340 337 330 325 321 322 329 334 337 341 339 338 340 341 340 338 337 337 335 335 334 327 326 327 328 332 334 334 333
310 313 314 309 312 312 314 314 313 315 319 329 331 327 337 342 341 340 340 339 338 336 331 327 322 317 317 326 333 336 337 337 335 338 339 340 339 337 336 335 332 324 324 325 328 328 330 326 329
313 313 307 309 310 313 316 315 314 317 318 320 333 328 336 339 336 341 341 339 339 337 329 328 325 320 318 323 328 329 330 331 336 337 337 337 337 337 333 331 329 327 328 330 329 330 328 326 330
315 310 306 309 312 313 315 316 317 318 319 328 337 340 337 338 338 341 340 339 339 338 330 329 327 323 320 319 320 321 321 320 320 323 332 336 336 336 335 329 331 327 328 332 332 334 330 327 326
314 307 309 311 312 314 314 315 316 321 327 332 332 338 338 339 337 337 339 339 339 338 332 329 328 327 327 325 322 320 318 318 321 323 323 324 328 334 334 334 327 332 333 332 332 322 330 324 324
308 307 308 311 312 312 312 311 314 317 321 328 332 335 337 339 339 337 337 339 337 338 337 335 333 333 331 327 326 326 325 324 325 327 325 324 327 330 333 333 333 331 329 327 323 324 324 325 323
309 308 310 309 311 312 314 313 313 312 314 320 325 332 329 328 339 338 334 333 336 338 339 338 336 336 334 332 325 325 326 327 326 327 328 327 327 327 326 328 330 330 329 328 329 330 330 329 328
308 307 312 310 310 312 313 315 314 313 313 315 322 330 328 325 338 337 335 334 334 334 334 336 337 336 333 332 326 330 326 326 327 327 329 328 328 329 329 329 327 328 329 330 330 330 330 329 328
312 308 308 311 311 312 311 312 315 315 315 316 318 328 328 325 336 336 334 335 329 327 328 330 334 334 333 332 328 332 331 330 330 330 327 328 331 328 328 328 326 324 323 325 326 326 327 327 326
310 307 311 312 312 310 311 311 314 313 311 315 319 330 334 334 335 335 333 329 324 322 322 323 322 329 330 332 328 332 331 331 331 331 329 330 330 328 326 326 327 325 324 323 320 322 321 324 324
313 312 314 314 315 312 313 315 314 315 314 316 316 321 329 332 333 331 324 323 322 321 321 320 324 328 332 331 331 331 330 330 329 329 329 330 329 327 327 325 325 326 324 320 317 317 318 318 318
315 316 316 316 316 316 317 316 316 315 315 316 315 317 319 321 322 324 322 319 320 321 320 319 321 326 329 328 331 329 329 328 328 328 326 321 322 322 325 325 323 321 318 316 317 316 315 313 312
317 317 318 317 316 316 317 315 315 315 314 315 316 318 318 319 321 323 320 318 318 318 319 319 319 325 326 325 325 325 325 324 323 321 323 322 323 322 321 322 319 320 321 320 321 321 320 319 320
319 318 318 318 317 317 316 315 315 313 313 314 316 317 318 318 319 319 318 317 316 316 318 318 318 320 323 324 323 322 319 319 318 317 317 320 321 322 322 321 320 318 317 316 315 316 317 318 319
318 318 318 318 316 315 315 313 312 313 314 314 314 315 314 314 319 317 317 316 316 316 316 317 317 319 320 322 322 319 316 313 313 314 315 317 318 319 316 317 314 314 312 312 309 307 305 308 311
320 319 317 318 316 315 313 312 313 312 314 313 312 312 314 313 315 318 317 316 316 316 315 316 315 316 317 319 316 313 313 311 311 313 313 311 314 313 312 312 311 311 307 307 305 304 303 303 303
316 316 318 318 315 316 316 315 315 314 313 312 312 311 312 312 313 316 317 316 316 316 314 314 313 311 313 313 313 311 311 310 311 312 313 311 308 308 309 309 308 305 305 305 304 304 304 303 304
317 317 318 318 316 315 315 316 314 315 315 313 311 312 312 312 312 315 316 316 315 315 314 312 312 311 309 311 310 310 310 309 309 312 312 310 308 306 306 307 306 305 305 305 305 304 304 303 303
316 315 317 317 317 316 316 315 315 315 311 311 311 311 311 312 313 315 315 315 314 314 313 312 311 310 310 309 308 308 309 309 309 309 308 310 308 307 306 305 306 305 305 304 305 304 304 304 303
316 318 318 318 318 318 317 317 315 313 313 312 312 312 312 311 311 314 315 314 314 313 313 312 312 310 310 309 308 308 307 307 307 308 308 308 307 307 306 305 305 304 304 303 303 304 304 304 303
315 319 318 318 318 318 318 317 315 314 313 314 313 312 312 311 312 312 313 315 314 314 314 313 312 311 310 309 309 308 307 307 308 307 308 307 306 306 305 305 305 304 304 304 304 304 303 303 304
316 318 319 319 320 321 319 319 316 314 314 314 314 312 311 312 312 312 313 313 314 314 314 314 313 312 312 310 309 308 308 307 307 307 306 306 306 306 306 306 306 305 304 303 304 304 302 301 302
317 318 318 320 320 321 320 317 315 314 315 314 313 313 312 311 311 312 313 314 314 313 313 314 314 313 313 312 311 309 308 308 307 307 306 306 305 306 306 306 304 303 303 303 301 300 300 298 298
318 320 320 323 320 322 321 319 317 318 316 315 314 314 313 312 312 312 315 315 314 314 313 312 312 312 312 312 312 311 310 308 307 306 306 305 304 304 303 303 302 301 299 297 296 296 295 295 294
317 320 321 322 322 323 319 320 318 318 316 315 314 313 313 312 312 313 314 313 314 314 313 313 313 313 312 312 312 312 311 310 308 307 306 305 303 300 299 298 298 298 297 298 297 295 294 293 293
318 320 319 325 324 322 320 322 319 317 315 315 315 313 313 314 313 313 314 314 313 314 314 314 313 313 313 313 312 311 311 311 310 307 305 304 300 298 297 296 295 295 295 295 295 295 293 293 293
319 321 320 320 319 319 321 320 318 318 319 318 317 316 316 316 315 315 313 313 313 313 313 311 311 311 310 310 309 308 308 309 307 305 302 298 297 296 296 296 295 295 295 295 294 294 293 293 293
319 319 320 317 323 326 322 321 320 320 319 318 317 316 316 316 314 312 311 312 312 312 312 311 311 310 310 307 307 306 305 304 302 299 297 296 295 296 296 296 297 295 294 294 292 292 292 292 292
319 319 321 323 321 327 326 323 319 320 318 318 318 317 315 314 311 310 311 312 312 311 311 310 309 309 309 306 305 304 302 301 298 297 296 297 296 296 296 295 294 294 293 292 292 292 292 292 291
317 321 321 322 326 318 320 324 318 317 317 318 317 315 313 312 311 310 310 311 311 311 310 309 309 309 305 304 302 300 299 298 296 296 295 295 295 294 295 294 293 292 292 292 292 291 291 290 290

GFSSGP_925_thetae_012.txt.gz
Theta_e
309 310 314 312 310 307 310 314 314 317 334 336 337 337 337 337 340 341 341 338 333 331 324 321 324 328 333 337 340 338 339 340 339 339 338 335 334 334 334 334 333 329 326 329 329 333 333 333 332
312 313 311 306 309 311 312 312 315 321 334 330 329 338 341 346 340 339 339 336 337 334 327 321 318 322 329 332 334 337 336 333 333 337 339 338 337 336 335 335 333 328 325 328 326 327 329 333 333
314 314 306 306 307 311 314 314 314 323 329 328 337 335 340 339 339 340 339 338 337 332 327 323 319 317 319 323 327 329 332 335 336 337 337 339 338 337 336 335 332 329 329 329 329 329 330 327 327
314 308 304 307 312 313 314 313 314 318 330 334 336 339 338 336 338 339 339 338 338 332 328 325 322 319 317 317 318 320 320 320 324 333 336 336 336 336 336 334 330 331 328 330 332 332 332 327 326
312 303 306 308 310 313 311 312 319 328 330 332 330 335 338 337 339 338 338 338 337 329 328 326 325 324 323 321 320 320 321 321 321 321 322 328 333 334 334 334 329 331 332 332 332 329 330 327 325
306 304 307 309 310 312 311 311 314 322 329 330 331 334 334 337 339 339 339 338 334 332 332 332 332 331 329 326 325 325 324 325 325 325 324 322 322 326 328 331 332 331 330 327 324 323 325 327 324
307 305 307 309 309 312 313 311 311 311 312 324 326 328 330 330 337 337 338 337 336 337 335 332 334 333 332 327 323 323 325 326 326 327 327 326 326 326 324 324 325 327 326 326 326 327 325 328 327
305 305 308 309 309 312 310 313 309 312 312 322 325 327 325 329 338 335 338 337 338 338 338 335 335 333 331 326 329 326 325 326 327 327 327 327 328 328 328 327 326 326 327 329 329 329 330 329 328
306 306 307 311 311 311 308 313 313 313 313 315 325 324 325 335 336 334 332 332 334 336 335 335 335 334 332 327 331 330 329 329 329 327 327 328 329 328 327 327 327 326 326 326 328 328 328 328 327
306 305 312 311 310 312 311 313 312 312 313 318 329 330 328 336 335 334 331 329 327 327 326 325 326 333 332 331 330 331 330 329 329 329 329 329 329 328 326 325 325 324 323 322 322 322 322 324 324
312 313 313 314 314 313 315 315 313 313 315 318 329 332 332 334 332 333 332 326 323 322 322 320 319 323 331 329 329 331 330 328 330 330 329 330 330 327 326 326 325 325 324 320 318 316 316 318 318
315 315 315 315 316 316 316 315 315 314 314 314 327 330 330 330 330 329 323 324 321 321 320 319 318 329 328 330 332 331 329 330 329 328 328 326 326 325 323 325 323 323 318 317 316 317 318 317 316
316 316 316 316 315 315 315 315 314 314 312 312 316 319 325 324 326 326 322 321 320 320 319 319 318 321 327 326 330 329 328 328 328 326 324 323 322 322 321 322 319 317 318 319 319 318 318 316 317
317 317 316 315 315 315 315 315 315 313 310 312 316 314 314 316 318 317 316 318 319 318 318 318 318 316 323 324 324 323 322 322 321 320 319 321 321 321 321 321 320 320 317 316 312 310 309 310 313
318 318 315 316 316 314 313 313 312 311 310 312 314 314 313 313 318 317 316 316 316 316 317 317 317 316 317 320 322 322 320 318 317 316 315 314 319 320 321 320 319 317 315 311 308 305 303 303 303
319 315 316 315 316 314 312 312 313 311 311 311 311 312 313 313 315 318 319 318 316 316 317 317 316 316 317 316 319 317 313 313 311 311 311 312 313 315 316 314 314 312 308 308 305 303 303 303 303
312 315 316 317 314 315 314 313 313 312 311 312 310 309 311 310 311 315 317 316 315 315 316 316 315 314 316 314 315 314 312 312 311 310 311 312 311 311 311 311 311 310 305 305 304 304 303 303 303
315 314 314 317 315 315 315 314 313 312 311 310 308 309 310 312 311 314 313 314 314 315 315 314 313 311 310 310 311 311 311 310 310 310 311 311 312 309 306 308 308 306 305 304 304 304 303 304 303
315 315 316 316 315 316 315 314 314 312 309 309 309 309 310 312 312 311 313 314 314 313 313 313 312 311 310 310 310 310 309 309 309 309 308 311 311 309 307 305 306 306 305 304 305 304 304 304 303
314 318 317 315 316 317 316 316 311 310 310 310 309 309 309 310 310 311 312 314 314 313 313 313 312 312 311 310 310 309 309 308 308 307 308 310 309 309 308 306 305 305 305 305 304 303 304 303 302
314 318 317 317 316 316 317 317 313 313 313 312 311 309 309 309 310 311 312 313 313 313 313 314 313 313 312 312 310 309 308 308 307 307 307 307 308 309 308 307 306 305 304 304 304 304 303 303 303
315 315 317 317 318 319 317 321 316 313 313 313 312 310 309 309 310 310 311 312 313 314 313 313 313 313 312 311 310 309 309 307 308 307 307 307 307 308 307 306 305 305 304 304 304 303 302 301 300
315 315 317 319 318 319 318 317 315 314 314 314 311 310 310 310 309 310 311 313 314 313 313 313 313 313 313 312 312 311 309 309 309 308 307 307 306 306 306 306 305 305 305 304 301 299 296 294 294
316 318 318 319 318 320 319 317 316 315 314 314 313 312 311 310 310 311 313 313 313 313 312 312 312 312 312 312 312 311 311 311 309 309 308 307 305 305 306 305 306 302 299 298 298 297 295 295 296
315 318 319 320 320 321 319 319 316 315 314 314 313 313 312 310 309 309 311 311 312 313 313 312 312 312 311 311 310 310 311 311 310 310 308 306 304 303 302 300 297 296 295 295 296 297 298 299 298
318 319 317 324 323 321 318 320 318 315 315 314 312 311 311 311 309 311 311 311 312 312 312 311 311 311 310 309 309 309 309 309 308 308 309 306 303 299 296 295 295 296 297 297 297 296 297 295 293
319 320 318 318 316 317 318 318 316 314 316 317 316 314 312 312 309 309 311 311 311 311 311 310 310 309 309 308 309 307 307 306 306 307 306 303 298 296 296 296 296 297 296 297 295 293 293 293 293
318 317 319 315 317 326 321 319 319 318 318 317 316 313 311 310 310 309 309 310 311 311 311 310 309 308 308 308 305 305 305 305 304 302 299 296 296 296 297 298 298 296 294 294 293 293 292 292 292
317 319 319 320 317 321 324 321 315 318 317 315 314 312 311 310 309 308 309 310 310 310 310 309 308 308 307 303 303 304 302 301 300 298 296 296 296 298 299 297 295 294 293 293 293 292 292 292 291
318 319 318 315 322 316 319 321 316 315 314 314 312 312 311 309 309 308 309 309 309 309 308 307 307 307 303 303 302 302 299 297 297 296 296 295 295 296 295 294 294 293 293 292 292 291 290 289 289

GFSSGP_925_thetae_015.txt.gz
Theta_e
311 312 313 311 310 306 310 313 313 321 341 337 335 335 337 338 337 336 339 339 327 325 326 328 332 334 337 338 338 339 339 339 339 337 335 334 333 332 331 330 331 329 327 329 329 329 332 331 331
311 313 310 304 309 309 310 311 318 332 338 337 336 338 339 343 339 339 335 330 328 325 321 322 326 330 333 335 337 335 335 335 336 338 338 336 335 335 335 334 332 329 328 326 325 327 332 333 332
313 313 305 305 306 311 313 313 329 332 332 328 338 337 339 342 338 338 337 334 331 329 324 319 318 322 326 329 332 333 334 335 335 336 337 338 337 336 335 335 334 333 330 330 329 329 329 330 332
313 306 302 307 311 312 313 313 323 330 331 333 336 340 337 336 339 338 336 335 335 328 325 321 319 318 318 318 318 318 318 321 328 334 335 336 337 336 336 333 332 330 329 330 332 331 332 327 327
308 302 305 307 311 312 315 324 325 329 330 330 330 334 339 337 339 338 337 337 328 327 325 324 323 322 322 321 321 319 318 319 320 321 323 329 333 334 334 333 330 328 330 332 332 331 330 327 326
306 303 307 307 308 311 311 315 321 328 329 328 329 330 333 337 338 338 337 335 327 327 328 328 328 328 326 324 323 323 324 324 325 324 322 321 323 326 327 329 330 330 329 327 325 322 322 327 327
306 304 307 307 310 311 312 311 310 314 321 323 325 330 332 332 338 338 337 334 333 334 333 334 333 331 329 326 323 324 324 325 326 325 326 325 324 322 322 323 324 325 326 327 327 326 323 324 326
303 303 307 307 309 310 309 312 310 310 313 323 323 325 336 332 337 338 338 336 336 335 334 334 334 332 330 325 326 325 325 325 326 326 327 327 326 327 327 326 326 327 328 328 329 329 329 329 328
304 305 307 310 310 311 309 312 311 309 319 317 325 321 323 336 335 337 337 337 337 336 336 335 335 333 331 327 329 328 327 327 327 326 327 327 328 327 326 326 326 325 325 326 327 327 328 328 327
305 306 311 311 309 311 311 312 311 313 322 328 326 327 328 335 332 332 333 333 335 337 336 335 335 334 332 330 329 330 329 329 329 327 328 328 329 327 325 324 324 325 324 322 322 321 320 321 322
311 311 311 313 311 310 314 314 312 309 318 326 323 327 331 334 333 330 330 332 333 334 330 327 325 327 330 330 329 330 330 330 329 329 328 328 329 328 326 326 325 322 323 322 318 317 314 315 316
313 313 313 314 313 313 314 314 315 313 312 320 321 325 330 331 329 330 329 327 327 325 323 321 322 328 329 329 329 329 330 329 329 328 328 328 328 327 326 324 324 321 320 315 314 316 316 316 316
315 315 315 315 314 314 314 314 314 313 312 311 324 328 329 328 327 329 331 329 324 322 321 319 319 323 325 327 330 331 329 329 328 328 326 325 322 321 320 322 323 319 316 317 317 316 316 315 314
316 316 314 315 314 314 315 314 314 313 310 311 324 326 325 325 326 327 323 324 322 321 320 319 318 317 321 325 327 327 327 327 327 325 323 322 321 322 321 320 320 318 319 317 313 308 306 304 306
316 317 314 315 315 315 312 312 311 311 309 311 318 325 320 319 323 322 325 323 321 319 319 318 318 317 318 321 323 322 321 320 319 318 318 317 316 319 321 321 321 320 317 314 310 306 303 302 302
314 312 314 314 314 312 312 311 311 311 309 310 310 312 313 313 316 320 319 320 318 319 317 318 317 316 316 316 316 317 318 316 315 313 311 311 311 313 317 318 319 317 314 311 307 304 303 303 303
310 313 314 314 313 315 313 312 311 311 309 309 308 308 310 310 311 314 315 315 316 315 317 317 316 316 315 316 315 315 314 312 312 311 311 310 311 311 311 312 313 312 311 307 305 304 304 303 303
314 313 313 315 314 314 315 312 311 311 309 309 308 307 308 308 309 312 313 315 314 314 316 316 315 314 314 315 312 312 312 312 311 310 310 310 311 312 311 308 309 310 309 305 304 304 304 303 303
314 316 316 315 314 316 315 313 313 310 308 309 306 306 309 311 310 309 310 312 313 314 315 315 313 313 312 311 310 310 310 310 310 309 309 309 309 311 311 309 307 308 307 305 304 304 304 303 303
315 316 315 314 314 316 315 315 309 308 310 309 309 309 310 310 308 309 311 312 314 314 314 313 313 312 311 310 310 310 310 309 309 309 308 309 308 308 310 310 307 306 306 305 304 304 304 304 303
313 316 316 316 314 315 315 316 312 311 311 310 309 308 308 309 309 309 310 312 312 312 313 313 312 312 311 311 310 310 309 308 308 308 308 308 307 307 309 309 308 306 305 306 305 304 304 303 302
315 314 315 316 317 319 314 319 314 311 313 310 308 307 309 309 309 309 310 311 312 313 313 312 313 312 312 310 310 309 309 307 310 310 310 309 308 307 308 308 309 308 305 305 305 304 303 302 302
316 314 315 318 317 317 316 314 315 311 312 313 312 310 309 309 308 308 310 312 313 312 313 312 312 312 312 311 311 311 310 310 310 309 309 309 308 306 306 307 308 307 305 304 303 302 300 296 295
315 317 316 316 316 319 318 316 314 313 313 314 313 310 311 309 308 308 310 311 312 311 311 311 312 312 311 311 310 309 309 309 308 309 309 309 308 307 305 305 306 305 304 301 296 295 296 297 297
315 317 317 318 319 320 317 317 315 314 314 313 312 312 311 308 307 308 307 309 310 311 311 311 311 311 311 310 310 309 309 308 308 308 308 307 307 305 303 303 302 299 296 296 297 297 297 297 297
317 318 316 319 322 320 316 319 316 314 313 311 313 312 309 309 307 309 308 309 310 310 311 311 310 309 308 308 307 308 307 305 306 306 306 306 305 301 297 296 296 296 297 298 299 299 298 298 296
319 318 317 316 315 316 318 317 315 313 314 314 314 311 309 308 307 306 308 309 310 310 310 310 309 308 307 307 306 303 304 304 304 304 304 303 300 296 296 297 298 297 298 297 296 296 295 293 292
317 316 319 314 315 324 321 319 318 317 316 314 313 310 309 308 307 307 308 310 310 309 309 309 308 306 307 306 303 304 304 303 303 303 302 300 297 296 297 298 299 298 297 294 293 293 292 293 292
317 318 317 317 316 321 320 320 315 314 313 312 311 310 309 309 308 307 308 310 309 309 309 307 307 306 306 302 303 303 302 301 301 299 298 297 296 297 299 299 298 294 293 293 293 293 293 292 291
316 317 315 318 321 314 314 317 313 313 312 311 311 310 309 309 309 307 309 309 309 308 308 307 306 306 302 302 302 302 300 298 297 296 296 296 296 297 296 294 293 293 293 293 292 291 291 290 289

GFSSGP_925_thetae_018.txt.gz
Theta_e
310 312 312 310 310 307 309 311 311 328 339 336 335 333 336 338 335 330 338 339 334 327 330 333 335 338 338 339 339 339 339 338 336 334 332 331 331 332 331 331 330 329 328 328 329 329 330 330 330
311 313 309 304 308 309 311 313 324 333 338 335 334 336 338 340 338 336 333 330 325 323 325 330 333 335 337 336 335 337 337 337 338 338 336 335 334 334 333 332 330 327 330 329 327 326 328 331 332
312 310 305 305 305 310 312 315 334 336 333 329 338 336 338 341 338 336 334 331 328 324 320 323 325 329 329 330 331 333 333 333 332 334 337 337 336 336 335 334 333 332 332 332 329 328 328 329 332
312 305 302 311 312 314 313 315 331 333 331 334 337 338 335 335 338 338 334 334 329 325 321 319 318 318 319 318 317 317 319 322 328 333 336 337 337 336 334 333 333 330 329 329 329 328 329 329 328
307 302 305 307 311 313 319 318 324 329 330 330 330 337 338 337 338 336 336 333 328 325 321 321 321 321 321 321 320 319 319 319 319 320 324 330 333 334 334 333 331 329 330 331 333 331 330 329 328
305 302 305 307 309 310 312 317 325 327 327 327 331 332 334 337 336 336 336 331 326 324 325 324 325 324 324 323 323 323 323 324 324 324 322 322 323 324 326 327 328 329 328 326 325 323 323 326 327
304 304 306 306 308 310 311 309 319 322 323 323 325 334 333 334 337 336 335 327 326 329 330 331 330 329 327 325 323 323 324 325 326 326 326 325 324 324 324 326 326 326 326 326 327 327 325 327 328
301 303 307 307 307 309 309 310 309 312 316 321 320 334 335 333 337 336 336 330 331 331 332 333 332 331 329 325 326 325 325 325 326 326 326 326 326 326 326 326 326 326 327 327 328 328 329 328 328
303 305 307 309 310 312 309 311 310 310 320 317 324 323 324 336 337 336 336 335 333 333 333 333 333 332 331 327 328 327 327 326 327 326 325 326 327 326 324 323 325 325 324 324 325 325 325 325 325
305 306 311 309 309 312 311 311 310 316 322 326 324 325 328 334 335 334 334 335 335 335 335 334 334 333 332 330 328 329 328 328 328 327 326 327 327 327 324 322 322 323 324 324 322 322 321 320 319
310 310 311 313 310 310 313 313 311 316 321 322 320 326 330 331 330 332 334 335 335 335 335 333 331 328 328 331 330 328 329 329 329 328 328 327 327 328 326 325 325 323 320 321 319 316 315 313 313
313 312 311 313 312 312 313 312 313 310 311 315 318 326 330 329 328 330 332 334 334 334 333 328 322 318 320 326 329 329 329 329 329 328 328 327 327 328 327 326 322 322 320 317 314 314 315 315 315
315 314 313 314 312 313 313 313 313 311 310 311 320 327 330 330 329 330 331 331 331 332 329 322 319 319 324 328 327 328 328 329 328 328 327 326 326 324 321 320 319 321 319 315 316 315 312 311 309
315 315 314 314 314 314 315 314 314 313 310 311 323 324 326 328 330 329 330 329 328 329 325 321 319 322 325 323 324 327 329 329 328 328 327 325 323 321 321 321 320 320 318 318 315 311 306 303 303
314 316 312 313 311 312 312 312 311 311 309 310 317 324 324 324 326 326 327 328 330 327 323 320 319 321 321 320 321 323 324 323 323 323 322 320 318 316 317 320 320 320 319 318 315 311 305 302 302
311 310 312 313 312 312 311 312 310 309 310 309 308 319 323 322 322 323 324 326 324 325 321 319 318 318 317 317 317 318 319 319 318 317 316 314 312 311 311 313 315 318 319 317 313 309 304 303 303
308 312 312 312 312 313 315 314 311 309 309 309 307 308 314 314 313 315 319 320 321 322 319 318 318 317 316 315 316 316 316 316 313 312 312 311 311 311 311 310 310 313 315 314 311 307 304 303 303
314 312 313 314 313 313 314 312 311 309 309 307 305 305 307 309 308 311 313 316 317 317 318 317 317 316 315 315 315 314 313 313 311 311 310 310 310 310 311 311 310 310 311 310 309 306 304 304 303
313 314 315 313 313 315 314 313 310 306 306 306 304 305 307 310 309 309 309 311 313 314 314 316 316 315 314 314 314 311 311 311 310 310 310 309 309 309 310 311 311 310 309 308 308 306 304 304 303
314 315 313 313 313 315 314 314 309 308 308 307 307 307 309 309 309 308 309 311 312 313 315 315 314 313 312 313 312 310 309 309 309 310 310 309 309 308 308 309 310 310 308 308 308 305 304 303 303
313 314 314 315 313 314 313 314 311 310 309 308 307 307 309 309 310 309 310 311 313 314 314 314 313 312 310 309 308 308 308 308 308 309 309 310 308 307 307 307 307 308 309 307 307 306 304 303 303
316 313 314 314 316 318 313 317 314 310 310 309 309 307 306 307 309 309 309 310 311 311 311 311 310 310 310 309 309 309 309 308 309 309 309 309 309 309 308 307 306 307 308 307 306 305 304 303 302
315 314 315 316 316 316 315 313 312 310 312 312 309 309 309 308 306 305 307 308 309 309 309 310 310 310 310 309 309 308 308 308 307 307 306 307 307 307 306 306 305 304 307 306 304 304 303 302 301
314 316 314 314 314 318 317 315 314 313 313 312 311 311 310 307 306 306 308 308 309 310 310 311 311 310 310 309 308 307 306 305 304 304 304 305 305 305 305 305 304 303 304 303 301 299 297 296 296
314 314 315 318 318 320 316 315 315 314 311 312 312 311 308 306 304 305 305 308 309 310 310 310 310 309 308 306 307 306 304 305 305 304 304 304 304 304 303 302 302 300 298 297 296 297 298 298 297
316 316 314 316 320 319 315 318 316 314 312 313 311 308 307 306 305 305 306 308 309 309 309 309 308 308 307 306 307 305 304 304 302 302 302 303 303 301 299 298 297 297 297 297 297 297 297 296 295
318 317 315 315 314 315 316 316 314 312 312 311 310 308 307 306 306 306 307 309 310 310 309 309 308 307 306 306 305 303 303 303 301 301 302 302 300 298 297 297 297 297 297 298 297 295 293 293 292
316 314 317 313 314 322 318 318 317 314 313 311 310 309 308 307 307 307 309 310 309 309 308 308 307 306 305 305 302 303 303 302 301 300 300 299 298 296 297 298 298 298 298 296 295 292 293 293 293
316 317 315 315 315 316 319 318 313 313 312 312 311 310 309 307 307 306 308 309 309 309 308 307 306 305 305 303 303 303 301 300 299 298 297 297 296 297 298 297 295 296 295 293 293 294 293 292 291
315 316 314 312 316 313 312 315 311 311 311 311 312 310 309 308 307 306 308 309 308 308 308 308 306 305 304 302 302 300 300 299 296 295 295 295 296 295 294 294 293 293 293 293 292 291 290 290 288

GFSSGP_925_thetae_021.txt.gz
Theta_e
310 311 312 311 316 316 315 319 314 338 340 337 335 333 337 339 336 334 337 336 328 328 331 335 337 337 338 338 339 338 337 335 331 331 334 336 336 335 334 333 332 330 328 327 327 327 329 330 330
311 311 309 310 318 325 327 317 321 338 340 336 336 338 339 339 339 337 337 336 325 325 328 330 334 336 336 336 338 338 337 337 336 334 332 332 331 330 330 330 329 327 328 331 331 328 328 331 332
312 310 313 313 313 322 332 325 338 339 332 334 340 338 339 341 338 337 333 328 324 321 322 327 331 332 333 332 333 334 333 333 334 337 337 336 335 334 334 333 331 330 331 332 330 330 329 329 332
311 309 310 320 320 316 321 334 337 336 333 337 337 338 337 335 337 337 331 330 328 321 319 321 323 323 320 320 320 320 323 328 333 336 337 337 337 336 335 334 332 330 330 330 330 330 330 330 329
307 310 317 319 321 321 323 331 335 334 332 335 333 339 340 337 337 335 333 331 327 322 320 320 320 321 321 320 320 320 320 320 319 322 328 333 334 334 333 333 329 330 330 331 333 331 329 330 328
311 310 318 321 317 313 319 324 327 329 329 331 335 336 337 335 335 334 334 331 325 322 322 322 323 323 323 322 322 323 324 324 324 323 322 321 322 323 325 326 328 328 326 325 324 323 323 323 325
311 311 310 310 313 314 314 310 325 326 328 326 330 336 335 337 335 335 333 328 324 324 325 326 326 327 325 324 323 324 323 323 324 325 325 324 324 324 324 324 324 324 325 325 326 327 326 327 327
307 310 309 309 311 311 309 311 311 315 321 322 324 333 339 336 335 335 332 327 327 328 329 330 330 329 328 325 326 325 325 325 325 325 325 325 325 325 326 325 325 325 326 326 327 327 328 327 327
305 311 310 310 311 312 310 312 310 314 324 319 324 328 326 336 335 335 333 331 329 330 332 332 331 330 330 327 327 326 326 326 326 326 325 324 325 326 324 322 323 323 323 323 323 323 323 322 323
311 312 312 310 310 313 312 311 311 316 322 325 326 325 329 335 335 336 335 334 333 333 332 333 333 332 331 329 327 327 327 327 327 327 326 326 326 326 325 323 322 322 321 322 322 321 320 317 316
312 314 311 312 311 312 314 314 311 318 318 320 320 327 333 335 336 336 336 335 334 334 334 333 333 331 327 327 329 327 328 328 328 327 327 327 326 327 327 325 325 324 322 319 318 314 314 314 313
316 312 313 313 312 312 314 313 314 315 315 314 320 329 334 335 336 336 336 335 333 333 334 334 331 325 320 320 325 328 328 328 329 328 327 327 326 326 326 326 323 320 320 319 315 314 314 314 314
316 314 313 313 312 313 313 314 314 313 313 312 320 331 335 335 334 334 335 334 332 333 333 333 327 320 319 323 325 327 328 328 329 328 327 327 326 325 323 322 320 319 320 318 315 316 313 309 307
315 315 314 313 314 312 315 314 313 314 311 314 323 331 334 335 333 332 331 332 331 332 332 331 323 319 320 321 322 324 326 328 329 327 327 327 325 323 321 320 320 319 319 318 318 316 312 307 303
314 315 314 314 313 313 311 315 314 311 311 312 318 325 332 333 332 331 331 331 330 330 331 329 322 319 318 319 321 322 323 324 323 322 323 323 322 319 316 315 315 315 317 319 319 317 313 307 303
313 313 316 313 315 314 315 319 316 311 312 314 313 315 325 330 330 329 326 327 329 329 328 326 321 318 318 318 318 318 318 318 317 317 316 315 315 313 312 312 311 311 314 318 318 316 312 307 303
313 314 314 316 313 316 317 318 316 312 311 314 312 311 316 325 324 319 318 322 323 324 324 324 320 318 318 317 316 315 315 314 313 313 312 311 311 311 311 310 310 310 311 313 314 314 312 307 305
316 315 315 316 315 316 317 317 314 309 310 310 309 310 310 316 321 313 314 313 316 319 322 322 319 317 317 316 315 315 314 312 311 311 310 310 310 310 310 310 310 310 311 311 312 312 310 307 305
313 314 316 314 313 317 316 316 313 311 312 313 312 312 311 312 311 310 311 311 313 315 318 318 317 316 316 315 314 313 311 310 309 309 309 308 308 308 308 309 309 310 311 310 310 310 309 307 305
314 315 314 314 313 317 317 316 312 312 311 311 313 313 313 313 313 311 310 310 311 313 314 314 314 313 311 310 311 310 308 308 308 309 310 310 309 309 308 307 307 308 310 310 310 309 308 306 306
316 315 315 316 315 315 315 317 315 312 312 312 311 311 311 312 313 312 311 310 309 309 309 310 309 308 308 308 309 309 309 309 309 309 309 308 308 307 307 307 307 307 307 308 308 309 308 308 306
318 313 316 316 318 321 314 320 316 312 313 313 312 313 312 312 311 309 309 308 308 308 309 309 310 309 309 308 308 307 308 308 307 306 306 305 305 305 305 305 306 306 307 307 307 307 307 306 307
318 315 316 317 319 319 319 319 318 314 315 315 315 314 313 312 310 309 308 308 308 309 309 309 309 309 309 307 306 307 306 305 305 305 304 304 303 303 304 304 304 304 305 306 305 306 304 305 304
315 317 315 316 318 323 319 318 319 316 315 316 315 313 311 310 309 309 309 309 309 309 309 309 309 308 307 306 306 306 304 304 304 304 303 302 302 303 303 303 302 302 302 302 301 300 300 300 300
318 317 321 325 326 325 317 317 319 315 314 314 314 312 311 310 311 311 310 310 310 309 308 308 308 307 306 306 305 305 304 304 304 303 302 301 301 302 301 300 300 299 298 298 298 299 299 298 297
318 318 323 319 324 323 316 320 319 314 313 312 312 311 311 311 310 310 310 310 310 309 309 308 308 307 305 304 304 304 303 303 302 301 300 300 300 299 299 298 298 298 297 298 297 297 296 296 294
319 322 316 319 315 322 320 318 316 313 313 313 313 313 312 311 311 312 311 311 310 309 308 308 307 306 304 304 304 303 303 302 300 300 299 298 298 298 298 298 298 297 298 297 297 296 296 292 292
317 315 321 320 324 322 320 320 319 316 315 313 314 314 313 311 312 312 311 311 310 309 308 308 308 306 305 304 303 302 301 300 299 298 297 296 296 297 297 297 297 296 296 295 294 294 294 293 293
319 319 317 318 319 325 323 321 316 315 314 314 314 313 313 312 312 311 310 310 309 309 308 307 307 306 305 304 301 301 300 298 297 295 295 295 296 297 297 295 295 294 294 294 293 293 294 293 293
315 316 315 319 318 319 320 318 312 314 313 313 313 312 312 312 311 310 309 309 308 307 305 305 306 306 305 302 301 300 298 298 295 294 294 295 294 294 294 293 293 292 292 293 292 291 290 290 289

GFSSGP_925_thetae_024.txt.gz
Theta_e
313 312 314 317 322 327 330 333 336 339 338 339 337 335 339 340 338 343 339 336 333 335 338 339 338 339 339 339 338 337 333 332 335 338 339 338 337 336 335 334 333 331 329 327 327 328 330 331 332
314 310 314 319 326 329 330 330 335 336 338 336 336 335 334 338 339 340 340 334 331 333 336 338 336 336 338 339 339 338 338 336 333 332 333 334 334 334 334 333 330 327 328 330 332 331 329 332 333
311 311 319 322 324 326 327 329 336 337 336 336 336 336 337 336 337 338 338 331 329 330 334 336 335 335 334 334 334 334 334 336 337 336 335 334 334 333 333 331 331 330 330 333 332 333 331 330 332
314 316 321 322 323 325 328 334 335 335 335 334 333 335 337 337 337 337 334 331 328 327 330 327 328 325 323 322 320 320 324 330 335 336 337 337 337 336 335 335 333 330 332 331 331 331 331 330 329
313 319 322 323 326 328 331 333 333 333 333 334 333 336 338 338 339 335 335 334 327 326 327 327 320 320 320 320 321 321 321 321 321 323 328 331 333 333 332 332 331 330 329 329 330 332 329 330 329
319 322 323 325 327 329 330 332 329 328 329 332 331 331 335 338 337 336 334 331 326 326 328 327 323 322 322 322 322 322 323 323 323 323 322 321 322 323 324 326 327 327 326 325 324 323 323 323 324
320 321 322 323 323 324 324 325 325 325 327 327 328 328 334 336 336 335 333 328 326 326 328 330 330 327 324 323 324 324 324 324 324 325 324 324 324 323 324 324 325 325 325 326 326 326 327 327 327
316 318 318 318 318 317 316 318 322 321 322 328 328 326 331 333 335 334 330 328 329 331 331 332 332 331 331 330 325 325 325 325 325 325 325 325 326 325 325 326 325 325 325 326 327 327 327 326 326
314 317 316 315 316 316 315 316 316 321 324 324 325 328 330 334 335 333 330 330 331 332 334 334 333 334 332 330 329 327 325 326 327 328 325 328 330 329 329 324 323 322 322 322 322 322 321 321 320
317 317 316 315 316 316 315 316 316 319 319 321 326 328 332 336 335 334 331 331 331 333 334 335 335 335 334 329 330 331 330 330 331 331 331 329 330 329 327 325 323 323 323 320 318 319 319 318 318
318 316 316 315 316 316 316 316 316 317 317 318 318 326 333 336 336 335 332 329 330 333 333 335 336 336 334 330 329 328 328 329 331 332 331 331 330 330 329 328 327 327 325 323 321 319 318 318 318
316 316 315 315 316 316 316 316 317 317 317 318 321 325 331 334 334 333 331 328 329 331 332 336 337 335 332 327 326 327 327 328 329 330 332 331 329 328 328 327 326 325 324 323 321 320 320 320 318
319 319 319 317 316 318 317 318 318 318 318 317 322 327 330 330 330 330 329 327 328 329 331 336 337 333 326 327 327 328 329 328 329 330 329 329 327 326 326 324 323 322 321 321 321 320 320 318 316
319 319 319 318 318 317 318 319 318 317 317 318 322 326 329 329 328 329 330 330 330 331 332 336 334 328 326 326 328 327 327 327 327 326 326 328 327 324 323 321 320 319 319 318 319 319 318 315 313
319 320 320 319 319 320 318 319 318 318 317 317 321 324 327 328 329 328 328 329 328 330 332 334 332 328 326 326 325 324 323 324 323 322 323 324 324 321 321 318 318 317 317 319 319 319 317 315 312
319 320 319 319 320 319 321 321 319 319 317 319 318 319 326 328 329 328 329 330 331 331 331 331 329 326 325 324 323 322 321 320 319 319 319 319 319 320 319 317 317 316 317 317 317 317 316 315 312
318 316 317 318 318 320 320 320 320 317 316 319 320 320 320 324 328 330 329 329 328 328 329 329 329 327 324 324 322 322 321 320 318 318 317 317 318 318 318 316 316 317 317 316 317 316 316 314 312
317 317 318 318 318 319 321 320 318 317 318 318 318 318 317 320 326 327 324 323 322 323 325 326 327 326 324 322 321 319 319 318 317 315 314 314 314 314 315 315 315 316 316 315 315 316 315 314 312
317 318 318 317 318 320 321 319 318 318 319 319 319 319 319 319 319 318 316 315 316 318 321 324 323 322 320 319 318 317 316 314 313 313 312 313 313 313 313 313 314 314 315 315 315 314 315 315 313
318 319 319 319 318 320 321 319 317 317 317 318 319 319 319 319 318 316 316 316 316 316 316 317 315 314 313 312 312 312 312 312 313 313 313 313 312 311 311 311 311 312 312 313 314 314 315 314 313
320 320 320 320 320 320 321 320 318 317 317 317 318 318 317 317 317 317 315 315 315 314 314 314 313 313 313 313 313 313 313 313 313 311 311 310 309 308 308 308 309 310 310 311 311 312 313 314 313
321 318 321 321 322 322 321 323 319 318 318 318 319 320 320 318 316 315 315 315 315 314 314 314 313 313 312 312 312 312 312 311 310 310 309 308 307 307 306 307 307 308 308 308 309 309 310 311 312
322 320 321 321 323 322 323 322 321 318 319 319 319 319 318 317 316 315 315 314 314 314 314 314 313 312 312 311 311 311 311 310 310 309 308 307 306 305 305 305 305 306 306 306 307 308 308 309 309
320 321 321 322 324 327 324 323 323 321 320 319 319 318 317 317 316 315 314 314 314 314 313 313 312 311 310 310 310 309 308 307 307 306 305 304 303 303 303 304 304 304 305 304 304 304 304 304 305
322 323 324 328 328 326 322 322 324 319 318 318 318 318 317 317 317 316 315 315 314 314 313 312 312 311 309 309 308 307 306 305 305 304 303 303 302 302 302 303 303 303 303 302 301 300 300 298 297
322 323 326 325 324 324 321 322 323 318 317 317 316 316 316 316 316 316 314 314 314 313 313 312 312 311 309 308 307 306 305 305 304 303 303 302 301 301 302 302 302 301 301 300 300 300 297 296 295
323 325 321 324 322 326 321 321 319 317 317 317 317 316 316 316 315 315 314 314 314 313 313 312 310 309 309 307 307 307 305 305 304 302 301 300 300 300 300 301 300 300 300 298 298 297 296 294 295
321 319 326 324 334 322 319 321 321 320 319 317 317 317 316 315 315 315 314 313 312 312 312 311 308 308 308 308 307 305 305 304 302 300 299 299 299 300 300 300 298 296 295 295 296 296 296 296 295
322 323 322 322 324 326 324 318 320 319 319 317 317 316 316 316 315 314 312 312 311 310 309 307 307 307 307 307 305 305 304 302 300 299 298 299 299 298 296 295 294 294 293 293 294 294 294 294 293
319 320 319 322 322 322 322 318 316 317 317 316 316 316 316 315 313 313 312 311 310 308 306 306 306 305 304 303 303 303 302 300 299 298 297 297 297 296 294 294 293 294 294 294 294 293 292 291 291

GFSSGP_925_thetae_027.txt.gz
Theta_e
310 314 317 319 323 327 334 335 334 336 336 337 334 336 337 340 345 351 339 335 338 340 340 340 339 340 339 338 337 334 333 337 338 338 338 337 336 336 335 334 334 331 330 330 331 334 334 336 332
317 314 316 322 325 329 332 332 333 335 334 333 332 331 332 338 340 340 336 334 336 338 339 340 337 339 339 338 338 337 335 332 332 335 336 336 335 335 334 333 331 328 328 330 333 334 331 330 332
316 315 320 322 328 330 331 331 333 332 332 332 331 332 334 338 338 339 333 331 332 334 338 336 335 335 335 335 334 334 335 336 335 334 332 332 331 331 331 331 330 330 330 332 333 332 331 330 330
316 317 321 324 328 327 328 331 331 332 332 331 329 333 337 335 337 335 331 329 330 333 334 330 330 328 326 325 325 326 328 330 333 335 336 336 336 336 336 335 333 331 331 331 332 330 331 330 329
316 321 323 325 327 328 330 331 330 331 330 329 327 330 337 337 336 334 333 329 328 327 328 329 321 320 319 320 321 321 321 322 325 329 330 331 331 331 330 330 330 329 329 329 329 329 327 327 328
319 324 324 326 327 329 330 330 328 328 327 325 326 330 337 337 336 335 333 328 325 326 327 325 321 322 322 323 323 324 324 324 324 324 324 324 324 323 323 324 325 325 324 323 323 323 323 323 324
320 324 325 325 327 328 328 326 325 325 324 325 324 328 334 334 334 333 329 326 325 326 327 328 329 326 323 324 325 325 324 325 325 325 324 324 324 324 324 325 325 325 325 325 325 326 326 327 327
321 323 323 323 323 322 320 322 322 321 324 323 325 324 333 334 333 331 327 326 326 327 328 330 330 331 332 331 325 324 324 326 325 324 323 324 327 327 326 329 323 323 322 322 323 325 325 325 324
319 319 319 319 318 317 317 317 317 320 320 321 323 328 329 333 332 330 328 327 328 329 330 331 331 331 330 329 328 328 326 326 330 329 326 330 331 329 330 326 321 320 320 320 320 321 321 320 319
319 319 318 317 318 317 317 317 318 320 319 321 323 324 331 332 331 329 328 328 329 330 331 331 332 333 331 326 328 329 328 330 330 330 330 329 329 328 325 327 326 325 326 322 321 319 316 317 320
319 318 317 316 317 317 316 316 317 318 319 320 321 324 330 330 330 329 328 327 328 329 329 330 334 333 331 328 326 327 327 327 329 331 330 329 328 329 328 328 329 329 327 325 324 322 321 319 319
317 317 316 316 316 317 317 318 317 318 319 319 321 324 328 329 329 329 329 327 326 329 328 330 332 332 330 326 325 325 325 327 327 329 330 328 327 326 326 325 324 323 323 323 322 321 321 322 321
317 317 317 317 317 319 318 318 318 318 318 318 321 324 328 329 329 328 328 327 327 327 327 330 333 335 327 326 326 326 327 327 328 328 328 327 325 325 324 324 322 322 321 320 320 320 319 320 319
320 320 320 320 320 319 320 319 319 319 319 319 321 323 326 327 327 327 327 326 326 326 327 329 333 335 326 325 326 325 327 326 327 325 325 325 325 323 323 321 320 319 318 318 318 318 318 318 316
320 320 321 321 321 322 320 319 319 320 319 320 321 322 325 326 326 327 328 328 327 326 327 330 334 334 329 326 326 323 323 322 322 321 322 323 323 321 321 320 319 318 318 318 318 319 318 318 317
320 321 322 321 321 321 321 324 320 321 320 321 320 322 324 326 326 326 326 326 326 326 327 329 331 331 331 325 324 322 322 321 320 319 319 320 320 321 320 319 318 318 319 318 318 318 318 317 316
320 321 319 321 320 321 321 323 322 321 320 320 321 321 321 324 326 326 327 328 327 327 328 329 330 332 330 326 324 323 322 321 320 319 319 318 318 318 318 318 318 318 318 318 318 317 317 317 317
319 318 318 319 320 319 320 321 321 321 321 322 322 322 321 322 325 327 329 326 325 325 327 328 329 331 329 326 323 321 320 319 318 317 316 316 316 316 316 316 317 317 317 317 317 318 317 317 317
318 318 319 320 320 320 322 321 321 321 321 322 321 321 322 324 324 322 321 321 321 322 324 326 328 326 324 323 321 319 318 317 316 315 315 316 316 315 315 314 314 314 314 315 315 316 317 318 317
319 321 321 321 320 320 322 321 320 320 321 321 322 322 321 321 321 320 320 320 319 319 320 320 319 318 317 316 316 316 316 316 316 316 315 314 314 313 312 311 311 311 311 312 312 314 315 316 316
322 322 323 322 321 321 322 322 320 320 320 320 320 320 320 320 320 320 319 319 319 318 318 317 317 316 316 316 316 315 315 315 315 315 315 314 313 311 310 309 309 309 309 309 310 311 312 313 313
323 321 322 322 323 324 323 324 322 321 320 321 322 322 321 320 319 319 319 318 318 318 317 317 316 316 315 315 315 316 316 316 316 315 313 312 311 309 308 307 307 307 308 308 308 308 310 310 311
323 322 322 323 324 323 324 322 324 321 322 322 321 321 321 320 320 319 318 318 318 317 317 316 315 315 314 314 314 314 314 312 311 311 310 308 306 306 305 305 305 306 306 306 307 307 307 308 308
321 324 324 324 325 327 323 324 324 323 323 322 321 320 320 320 319 318 318 317 317 317 317 316 315 315 314 313 312 312 311 309 308 308 307 306 306 305 304 304 304 305 305 306 305 305 304 304 303
323 325 328 329 329 329 325 324 326 322 321 322 321 320 320 319 319 319 318 318 317 317 316 316 315 315 313 312 311 310 309 308 307 307 306 306 304 303 302 303 304 304 304 303 302 302 301 300 299
324 324 329 327 327 326 323 321 326 321 320 319 319 319 319 319 318 317 317 317 317 316 316 316 315 313 311 311 310 309 309 308 307 307 306 304 302 301 302 302 302 302 301 300 299 299 298 296 295
325 327 323 325 328 326 321 324 323 320 320 319 319 319 319 318 317 317 316 316 315 314 314 314 313 311 310 310 310 309 309 307 307 306 304 301 301 301 302 300 300 299 298 297 297 296 297 297 297
321 322 327 326 331 324 320 320 322 322 321 320 320 319 318 318 317 317 315 314 313 313 312 311 310 309 309 309 308 307 306 305 304 303 301 300 300 300 299 297 297 296 295 295 295 295 295 294 294
322 323 323 322 323 326 324 320 320 320 320 320 319 318 318 318 317 316 314 314 313 312 311 309 309 308 306 304 303 303 303 303 302 301 300 300 299 298 298 297 296 295 296 295 295 295 295 294 294
320 321 321 323 322 323 324 321 318 317 318 318 317 317 317 317 315 314 313 313 312 310 308 307 306 303 301 300 300 301 301 301 301 300 298 298 298 297 297 296 296 296 296 294 294 294 293 292 292

GFSSGP_925_thetae_030.txt.gz
Theta_e
309 311 315 319 322 323 326 335 335 336 336 333 334 334 339 342 348 349 338 340 343 341 341 339 338 338 338 337 334 333 337 338 337 337 337 337 336 335 334 334 333 331 330 331 334 333 332 331 331
310 317 319 319 322 325 335 333 335 334 332 328 331 330 338 341 339 336 336 339 339 342 340 338 337 337 337 337 336 334 332 333 336 337 337 336 335 335 334 332 330 328 328 330 336 332 332 330 330
310 316 317 320 322 324 332 334 333 331 330 330 331 335 336 339 337 334 335 337 339 341 336 335 336 336 335 335 335 336 336 335 333 332 332 332 331 332 332 332 333 332 331 331 334 331 330 329 329
316 317 316 321 325 329 331 332 330 330 330 329 331 335 335 335 335 332 331 333 336 337 334 332 329 328 327 324 324 325 328 331 333 335 336 336 336 336 335 334 332 330 329 329 331 330 331 330 329
318 319 319 324 328 330 330 330 328 329 328 328 329 337 338 336 332 331 330 331 331 333 327 322 319 319 319 320 321 321 321 323 326 329 330 329 328 327 326 326 326 326 326 325 324 323 322 321 321
317 320 322 326 329 329 329 329 329 329 328 324 329 335 337 335 334 333 328 328 327 328 322 319 320 321 322 322 323 323 324 323 323 323 322 322 322 322 323 323 323 323 323 323 323 324 324 324 325
318 319 323 327 328 328 329 327 325 325 324 324 324 333 335 335 334 332 326 325 326 326 326 327 323 322 322 322 323 323 323 323 323 323 323 322 322 322 323 324 323 323 323 322 322 324 325 325 325
318 319 323 326 326 325 322 323 323 322 324 321 326 330 334 334 332 329 325 325 326 327 328 330 330 332 332 327 321 321 323 322 323 322 322 328 329 328 328 329 324 318 317 318 319 320 320 319 318
319 322 323 322 323 319 318 318 318 320 319 322 326 327 333 333 331 327 326 326 327 328 330 330 331 331 332 332 327 327 322 328 329 329 328 331 332 331 331 328 325 323 323 323 317 319 315 313 316
319 320 318 318 318 317 317 317 318 321 319 321 325 331 332 331 330 328 327 327 328 330 330 332 331 331 329 326 328 330 328 331 332 331 330 331 327 328 326 328 327 327 327 325 324 323 321 320 321
319 318 317 317 317 317 317 316 318 319 319 321 322 329 331 331 329 328 327 328 329 330 330 331 332 331 331 326 326 329 328 329 331 330 330 329 327 329 327 328 328 326 326 325 325 323 323 322 321
317 317 316 317 317 317 316 316 317 318 319 320 322 324 329 329 329 328 327 327 327 329 329 331 331 331 329 327 326 326 326 328 327 331 330 328 327 326 326 324 324 323 322 322 321 321 321 321 322
316 316 316 316 317 319 318 317 317 318 318 319 322 324 328 328 328 328 328 328 326 329 328 330 331 331 328 324 326 326 326 328 329 328 327 328 325 325 324 323 322 321 320 319 319 319 318 319 319
318 318 318 318 319 318 318 319 319 319 319 318 321 324 327 328 328 329 328 327 327 327 327 330 333 335 327 325 327 325 327 326 327 325 326 324 325 324 323 322 321 320 319 318 318 318 319 319 319
320 320 320 320 320 321 319 319 318 320 319 320 320 321 325 326 327 327 327 327 326 326 327 328 332 335 329 326 326 324 324 322 322 322 322 322 323 322 321 321 320 319 319 318 318 319 318 318 318
319 321 321 321 321 321 320 322 319 320 320 320 320 322 323 326 325 327 327 327 327 326 327 329 331 334 333 329 325 323 322 322 321 320 320 320 321 320 320 320 319 319 318 318 319 319 319 319 318
321 321 322 322 320 322 321 322 322 322 321 320 321 321 323 324 326 326 326 326 326 327 328 329 330 332 332 330 326 324 323 321 321 320 319 319 318 317 317 317 317 317 317 318 318 318 318 318 319
320 319 318 319 320 319 320 320 321 321 321 321 321 322 322 322 326 327 326 325 325 325 326 328 329 332 331 328 325 323 321 321 320 319 317 316 316 317 316 316 315 316 316 316 316 317 317 318 318
318 318 318 319 320 319 319 321 321 321 321 322 322 322 324 324 322 322 322 323 323 324 326 326 327 325 324 324 321 319 318 317 317 316 316 316 316 316 314 313 313 312 312 313 313 313 314 315 316
318 320 321 321 320 319 322 321 321 321 322 322 322 323 322 322 322 322 321 321 320 320 320 320 319 318 318 317 317 316 316 317 317 317 316 315 315 314 313 312 311 310 310 310 310 311 312 313 313
321 321 324 322 321 321 321 322 321 320 321 321 321 321 321 321 321 322 321 320 319 319 318 318 317 317 316 315 316 316 316 316 316 316 316 315 313 312 311 308 307 307 308 309 308 308 309 311 311
322 323 322 321 322 322 322 323 321 320 321 322 322 322 321 320 321 320 320 320 319 319 318 317 317 316 316 316 316 316 316 316 313 312 312 311 309 308 306 306 305 305 306 307 307 308 307 308 309
323 322 322 322 323 323 323 324 323 321 321 323 322 322 322 321 321 320 320 319 319 318 318 317 316 316 315 315 314 314 313 312 311 309 309 307 307 306 305 303 303 304 304 304 307 306 305 305 303
321 324 324 325 325 330 325 323 323 322 322 323 322 321 321 320 320 319 318 318 319 318 318 317 316 316 315 314 313 312 311 310 309 309 308 308 307 305 303 302 302 304 305 304 303 302 302 301 300
323 324 333 335 334 334 326 325 326 324 323 323 322 321 321 321 320 319 318 318 318 317 317 317 316 315 313 312 312 311 310 310 309 308 308 307 305 303 302 302 303 303 302 301 301 300 300 299 298
324 323 335 331 336 333 325 323 326 323 321 321 321 320 320 320 319 318 317 317 317 315 314 314 314 313 311 310 311 311 310 309 308 307 306 304 302 301 302 302 301 300 300 299 299 298 298 298 297
323 328 322 323 329 332 322 325 323 321 321 320 320 320 320 319 318 318 317 316 315 314 313 313 312 311 310 310 309 307 307 306 306 305 303 302 301 301 300 298 298 298 297 297 296 296 296 295 296
321 320 325 331 332 327 321 321 326 322 322 321 320 320 319 318 318 318 316 315 314 314 313 312 310 309 309 306 303 302 302 303 303 303 302 301 300 299 299 297 298 297 296 296 296 295 295 295 295
321 322 322 321 324 329 328 322 319 319 321 321 320 318 318 318 318 317 315 314 314 312 311 309 308 307 303 301 301 301 301 301 302 301 300 299 298 298 298 297 296 296 296 296 296 295 295 295 294
319 321 321 331 324 328 328 324 318 318 319 319 318 318 318 318 317 316 314 313 312 311 309 308 305 302 301 300 300 301 301 300 300 300 300 299 298 297 297 297 297 296 295 295 294 294 293 292 292

GFSSGP_925_thetae_036.txt.gz
Theta_e
309 309 316 316 316 316 318 321 331 334 338 338 338 340 340 339 342 345 341 339 340 339 338 337 334 333 336 336 335 334 334 335 335 335 335 335 334 333 332 331 329 328 329 329 328 328 330 329 329
310 313 317 312 316 317 327 327 338 338 338 336 336 338 341 343 339 341 340 340 339 339 338 337 336 334 332 334 336 336 336 336 336 335 334 333 332 330 330 329 330 330 330 332 331 330 329 328 328
310 312 311 312 314 316 331 327 327 332 335 334 334 334 336 338 339 340 340 339 338 338 337 336 336 335 334 333 332 332 333 333 333 331 330 330 332 332 332 331 330 329 330 330 328 326 325 323 322
316 312 309 313 314 314 328 326 330 334 334 335 334 335 331 333 337 340 340 338 336 336 336 336 334 332 331 330 331 331 331 331 331 332 332 331 330 326 323 321 320 321 321 321 321 320 320 320 321
316 311 313 313 318 327 326 325 327 331 335 336 333 334 331 338 340 340 337 335 332 333 331 329 323 319 319 320 320 322 323 325 326 325 324 322 320 320 320 320 320 320 320 319 317 316 316 318 320
312 311 314 318 326 327 323 324 328 336 335 333 332 333 330 337 338 337 334 332 329 325 320 318 318 319 318 319 319 319 320 320 320 320 320 319 319 319 319 317 316 315 313 312 311 311 312 312 313
313 313 313 319 328 325 321 319 327 335 335 336 334 334 329 326 335 331 327 325 320 317 318 319 318 317 316 316 318 320 320 320 320 320 322 324 325 322 322 323 321 320 321 320 313 315 315 311 311
312 312 314 319 330 322 317 317 316 322 325 332 332 336 332 326 331 326 319 318 317 318 318 319 323 324 320 314 314 315 318 317 319 323 328 328 326 325 325 324 324 323 323 322 322 321 320 318 318
313 312 312 313 317 317 314 316 315 320 327 329 328 332 330 325 326 326 323 319 320 320 321 328 329 328 325 321 320 324 326 326 326 329 328 328 327 326 326 326 326 325 325 324 323 322 322 321 320
312 311 314 313 315 313 312 314 315 325 332 332 331 330 327 323 324 324 323 324 324 325 325 330 329 329 327 326 324 328 328 328 327 329 330 328 327 327 327 327 326 325 324 324 324 322 322 322 321
310 311 313 313 312 312 313 315 315 322 331 333 333 329 325 322 322 323 323 325 327 329 330 331 330 329 330 328 328 326 329 329 329 329 329 328 328 328 328 327 324 323 322 321 321 321 321 321 320
311 312 313 314 312 311 312 312 314 316 323 331 330 328 325 322 322 323 323 324 327 328 330 331 330 330 328 329 328 329 328 329 329 329 328 328 326 327 325 324 322 321 320 319 319 320 319 318 317
311 312 312 313 313 311 311 313 314 315 321 329 329 328 327 324 324 324 325 326 328 330 331 331 327 329 326 325 326 327 329 329 330 330 328 328 326 325 324 323 321 320 319 319 318 318 317 317 318
312 312 312 314 315 315 314 314 315 314 322 329 329 328 327 325 325 324 324 325 328 331 331 330 320 323 325 325 324 324 327 328 328 328 328 327 323 323 321 321 320 320 319 319 319 318 318 317 318
312 313 314 315 316 315 315 317 313 312 324 329 329 328 327 326 326 325 325 325 328 330 330 329 325 324 322 326 325 323 325 326 326 327 326 324 320 319 321 320 319 319 319 318 317 317 317 317 317
316 314 316 316 315 317 315 315 314 311 316 323 325 326 325 322 323 323 323 324 327 330 330 329 329 327 324 323 325 324 326 324 322 323 322 321 320 320 319 318 318 317 316 315 315 314 314 312 311
314 314 316 318 315 317 316 316 314 311 312 313 312 319 320 320 320 322 324 324 325 328 330 332 330 327 329 326 324 323 323 321 320 320 321 321 320 319 318 316 315 313 313 312 311 310 309 308 308
316 314 317 317 316 315 316 317 316 315 316 318 319 319 319 319 318 319 320 324 326 329 331 331 330 329 329 326 323 322 320 317 318 318 317 316 316 316 315 313 312 311 310 308 308 308 308 308 306
315 315 316 316 316 316 315 316 317 316 318 319 319 319 319 318 318 318 319 320 322 319 319 322 322 319 322 319 317 316 316 315 316 315 314 313 312 311 310 308 307 306 306 306 306 305 305 304 306
317 318 318 317 317 314 315 317 316 317 318 319 319 319 319 318 317 317 317 317 317 317 317 316 315 315 316 316 316 316 316 314 311 310 309 308 308 307 305 305 304 303 303 303 303 303 304 306 306
321 319 320 319 318 317 315 317 319 317 316 318 317 318 318 318 317 317 316 316 316 316 316 315 315 315 314 314 314 314 313 313 312 309 308 307 307 306 305 304 304 303 302 301 302 303 304 304 304
323 320 320 319 317 317 316 317 317 317 317 317 318 317 317 318 316 316 316 317 316 316 316 316 315 315 314 314 313 312 312 311 310 309 308 307 306 306 306 305 303 301 302 303 303 302 301 301 301
321 319 319 320 319 319 319 316 315 319 320 318 316 316 316 316 316 315 316 317 317 316 316 315 314 314 313 312 312 311 310 310 309 308 308 308 307 306 305 303 302 300 301 300 299 299 300 299 299
320 321 321 320 320 321 322 321 316 319 321 319 317 316 315 315 314 315 317 317 317 317 316 315 313 312 311 311 310 310 310 309 308 307 307 306 304 302 302 301 300 299 298 298 298 298 298 297 297
319 320 322 325 324 324 325 327 325 321 320 319 317 315 314 313 313 314 315 316 317 316 315 315 314 310 310 310 308 307 306 305 305 305 304 303 302 301 301 300 298 297 296 296 296 296 295 295 295
320 321 320 327 324 321 321 326 321 318 318 317 316 315 315 314 312 312 314 316 314 313 313 312 311 309 307 305 303 301 301 301 301 301 302 302 301 300 299 298 298 297 296 295 295 295 295 294 294
318 321 318 319 319 319 321 320 319 319 320 320 319 320 319 315 312 312 313 312 312 312 312 311 309 305 302 301 300 300 300 300 301 301 301 300 299 298 298 298 298 297 296 296 296 295 295 295 295
318 316 320 318 321 325 320 323 324 320 320 319 317 316 316 316 314 311 311 311 310 310 308 308 306 304 301 300 300 300 300 300 300 300 300 299 298 298 297 297 296 296 296 295 294 294 294 293 293
317 319 318 317 317 320 319 317 317 318 317 316 317 317 316 312 310 310 309 308 307 307 306 304 302 301 300 300 299 300 300 299 299 299 299 297 295 295 295 296 296 295 294 293 293 292 292 291 291
317 319 318 315 318 317 314 314 317 316 317 316 315 314 312 310 309 307 306 306 305 305 303 302 301 300 300 299 299 299 299 299 299 299 299 296 294 294 295 294 294 293 292 290 290 290 289 288 287

GFSSGP_925_thetae_039.txt.gz
Theta_e
309 309 314 315 316 314 317 318 331 335 340 336 337 339 339 340 343 343 340 340 339 337 335 334 335 335 336 336 335 333 333 333 334 334 334 333 333 332 330 329 328 329 332 332 331 330 329 328 327
310 314 315 311 315 316 326 327 338 339 337 336 336 338 340 346 342 342 340 340 339 337 335 333 335 336 335 334 334 334 334 335 335 334 333 332 330 329 329 330 331 331 334 337 332 328 326 323 322
312 314 310 312 313 316 327 328 335 337 336 334 337 333 336 344 340 339 340 340 339 337 336 334 333 334 335 335 335 335 335 334 333 331 329 330 331 331 328 326 324 325 326 324 320 320 319 319 319
315 310 308 313 313 313 326 327 333 336 335 334 335 336 331 335 339 339 340 339 338 337 336 335 334 332 332 331 331 331 331 330 330 330 330 328 324 320 318 318 319 319 319 319 319 318 318 319 321
314 310 312 312 315 319 325 329 332 334 336 335 333 335 332 338 340 338 339 338 337 337 335 335 333 330 329 328 328 329 329 328 327 325 322 319 318 318 318 318 318 317 316 313 312 312 313 313 313
311 309 313 322 327 325 320 325 335 335 333 333 335 333 332 338 338 338 337 336 335 333 331 327 321 319 319 320 321 321 321 322 321 320 319 317 317 317 317 316 315 314 315 313 311 312 312 311 311
311 311 313 328 325 325 320 321 335 333 334 335 331 332 333 335 337 336 335 333 330 324 318 318 318 317 317 318 318 319 319 320 319 318 319 321 321 322 322 322 320 320 321 317 321 320 318 316 316
311 310 314 327 327 325 322 318 322 331 332 331 328 332 335 327 335 333 330 326 319 317 318 317 317 315 315 317 318 318 318 318 317 321 325 325 324 324 324 324 323 322 323 322 322 321 320 319 319
311 312 313 328 324 321 322 316 318 325 333 330 328 328 329 332 331 328 324 321 319 319 318 322 323 320 315 314 315 317 316 318 324 327 327 326 326 325 326 325 325 324 324 324 323 321 321 321 320
312 312 312 321 325 324 314 323 322 331 333 332 330 324 327 326 324 321 320 321 320 319 321 326 326 324 321 320 323 324 324 325 329 329 327 327 326 327 327 326 326 324 323 322 322 322 321 321 320
311 312 310 312 322 317 312 314 318 331 334 333 331 324 323 323 323 321 319 319 320 321 324 327 327 327 325 324 326 327 327 327 327 328 329 328 327 327 328 326 325 323 322 321 320 320 320 320 318
312 311 312 312 311 312 312 312 323 321 331 330 328 322 322 322 322 322 321 321 322 323 327 329 328 329 328 327 327 327 328 328 328 328 328 328 327 327 327 325 323 321 321 319 319 318 318 317 317
311 312 312 312 310 310 311 313 313 316 328 329 327 322 322 322 322 323 324 324 325 327 328 330 329 329 328 328 327 328 328 328 329 329 329 328 326 325 324 323 322 320 319 319 318 318 317 317 317
311 310 311 313 313 313 313 313 315 315 328 328 328 325 322 321 322 322 322 323 325 327 329 330 329 328 326 326 326 327 328 328 329 329 329 327 325 324 323 322 321 320 319 318 318 317 316 316 316
311 312 313 314 314 314 312 315 315 315 329 330 329 327 324 322 322 322 322 323 326 327 330 330 329 327 325 325 325 325 327 328 327 327 329 328 325 321 321 320 319 319 318 316 315 314 313 313 312
314 312 314 315 315 314 313 313 314 317 329 329 327 326 323 319 319 322 323 323 326 329 330 329 328 324 324 324 324 323 325 325 324 326 327 325 323 321 320 319 318 316 314 312 312 310 310 309 307
312 315 316 316 314 316 315 316 314 310 322 315 318 318 319 318 318 320 322 322 324 328 329 328 326 325 325 325 325 322 320 320 319 320 321 321 320 319 317 315 313 312 311 310 308 308 307 306 305
315 315 315 316 315 315 316 316 312 311 316 317 317 318 318 318 316 317 319 324 327 329 329 328 326 327 328 323 318 315 316 316 315 315 315 315 315 314 313 311 309 308 307 306 305 304 304 303 303
315 314 315 315 314 313 314 314 314 316 318 318 317 318 317 317 316 317 317 321 326 327 328 328 328 326 325 320 317 315 315 314 313 311 311 311 311 310 309 308 306 305 304 303 303 302 301 301 303
316 315 316 317 315 314 314 314 314 315 318 318 318 317 316 316 315 315 317 317 317 316 316 316 316 316 316 315 315 315 313 312 312 311 310 309 308 308 307 306 305 305 304 301 301 302 303 304 304
319 318 318 318 316 313 315 316 318 316 317 318 317 316 316 315 315 315 314 315 315 315 315 314 314 314 314 313 313 312 312 311 310 309 308 307 307 306 306 305 305 303 300 301 302 302 301 300 300
322 319 318 318 315 312 314 318 318 317 318 318 318 316 316 316 315 315 314 314 314 315 315 315 314 314 314 313 313 312 311 311 309 308 307 306 305 305 305 303 302 300 300 299 299 299 299 300 300
320 318 318 319 317 318 319 315 315 317 319 318 317 316 317 316 314 314 315 315 314 314 315 314 314 313 312 312 311 311 310 310 309 308 307 306 305 304 302 301 301 300 299 297 297 298 299 298 298
319 319 319 318 318 321 321 320 315 318 318 317 316 316 316 316 315 315 315 315 315 314 313 313 312 310 310 310 310 310 309 309 308 306 306 305 303 302 301 300 299 297 296 296 296 296 295 295 296
317 319 321 324 323 323 321 324 321 318 317 317 316 315 314 313 313 313 314 315 316 315 313 312 311 310 309 309 308 307 305 304 303 303 302 302 302 301 300 299 298 297 296 295 295 295 294 294 294
319 320 318 326 323 318 320 324 321 317 316 316 315 313 313 313 313 314 315 315 314 313 311 310 310 309 307 306 303 301 300 300 300 300 301 301 301 300 298 297 297 296 296 296 295 295 295 295 295
318 319 316 319 316 317 319 320 318 318 317 316 316 315 316 316 314 312 311 311 310 310 310 309 308 305 302 301 300 300 300 300 299 300 300 300 299 298 297 297 297 296 296 296 296 295 294 294 293
315 315 320 316 319 322 319 321 321 319 319 318 318 318 317 314 311 309 309 308 309 308 308 307 304 303 301 300 300 300 300 299 299 299 299 299 299 296 295 296 296 296 296 294 294 293 292 292 292
316 317 315 316 315 318 317 317 312 317 317 316 316 316 310 308 308 306 306 306 307 306 305 303 302 301 300 300 300 299 299 299 299 299 299 299 297 295 294 294 295 295 293 292 291 291 290 290 289
316 318 314 310 315 314 313 313 315 314 314 314 314 311 309 308 306 306 305 304 304 304 302 301 300 300 300 300 300 300 299 298 298 298 299 299 297 294 294 294 294 294 292 291 290 289 289 288 287

GFSSGP_925_thetae_045.txt.gz
Theta_e
309 309 310 314 319 318 319 320 326 340 342 339 339 340 343 343 344 346 340 339 338 336 337 339 339 337 334 333 332 332 332 332 333 333 333 332 331 329 328 327 328 331 334 334 331 326 322 320 319
310 312 313 314 317 316 327 322 339 342 341 339 337 341 343 348 342 342 341 340 337 335 337 339 338 337 335 333 333 332 332 333 333 332 331 329 327 327 328 329 333 330 330 328 324 319 319 319 319
312 313 315 316 317 320 329 337 342 340 338 338 337 335 341 346 340 340 340 338 335 336 337 339 337 337 335 334 332 333 333 333 331 328 326 327 328 328 325 325 325 323 322 320 317 316 316 316 317
313 311 311 316 317 316 326 339 338 336 334 332 333 333 336 337 339 339 339 337 335 337 337 337 337 336 334 333 333 333 332 330 327 325 326 326 322 319 319 320 320 319 315 312 312 312 312 312 312
311 310 315 315 322 321 319 337 336 336 335 332 330 332 339 339 338 340 339 336 334 336 337 336 335 334 334 334 333 331 329 326 325 325 323 319 318 318 318 317 315 313 312 313 314 313 311 314 317
315 311 316 325 328 324 330 336 333 336 333 332 333 334 340 338 339 338 338 336 335 334 334 336 335 334 333 331 330 328 326 323 323 321 318 317 317 316 315 316 319 315 317 319 318 317 317 318 318
315 314 321 327 327 329 330 334 334 335 334 334 332 341 340 338 336 337 337 337 336 335 333 333 332 330 328 326 326 323 322 321 319 318 317 318 320 320 319 320 321 319 320 320 319 319 319 319 319
313 314 327 328 328 327 328 331 332 333 335 330 333 340 343 336 336 338 337 337 336 335 333 329 325 323 323 323 320 320 320 319 318 319 320 322 322 323 323 322 322 322 322 321 320 320 319 319 318
310 315 326 329 328 329 329 328 327 329 332 331 327 336 336 334 334 335 334 334 333 331 323 319 319 319 319 318 319 319 319 318 320 322 322 323 324 324 324 324 323 322 323 323 322 320 320 319 318
314 316 321 326 328 331 328 327 326 334 333 331 332 332 333 333 334 333 332 330 327 321 319 318 318 317 317 317 318 319 318 318 324 325 325 325 325 325 326 325 324 323 322 321 320 319 319 320 317
314 317 315 324 326 328 329 322 328 335 335 332 334 336 333 333 332 331 329 327 321 317 318 319 318 316 316 317 317 317 318 322 324 326 326 326 326 326 326 327 326 324 322 320 319 318 318 317 317
315 313 316 326 324 319 323 320 331 333 328 330 333 335 333 332 331 329 326 321 319 318 319 321 320 319 318 320 321 321 323 325 327 327 327 328 327 326 326 327 326 323 320 318 318 317 317 317 316
313 312 311 313 316 313 315 321 329 325 329 329 332 333 333 331 329 326 322 319 319 318 319 323 323 322 321 322 323 324 325 326 326 326 327 327 328 327 326 325 324 320 319 318 317 316 315 314 312
311 311 310 312 316 313 315 314 322 321 326 329 332 333 330 328 325 321 318 317 319 320 321 323 325 325 325 325 326 327 326 325 326 326 327 327 328 325 323 322 320 318 317 315 314 312 311 310 310
312 313 313 312 312 313 313 314 314 326 327 328 331 329 326 324 322 321 320 319 319 321 322 323 325 326 328 327 324 323 323 324 324 326 327 327 326 323 322 319 318 315 313 311 311 309 308 308 306
314 314 315 314 313 312 314 316 310 329 329 328 327 325 324 322 321 320 321 320 322 323 325 325 325 326 324 322 322 320 320 321 321 323 324 323 323 322 319 316 314 311 309 309 308 306 305 305 305
314 315 316 316 314 314 315 315 314 321 329 328 326 324 323 322 320 319 321 322 320 324 325 325 326 324 324 322 323 323 321 321 319 319 318 316 316 315 313 312 309 308 306 305 305 304 303 303 304
317 316 315 317 315 315 315 316 317 318 324 322 322 322 322 321 318 319 321 322 323 324 325 324 324 325 323 324 323 321 319 315 315 313 313 312 311 309 308 307 306 305 305 304 303 301 301 302 302
314 314 316 315 313 317 317 319 319 319 321 322 322 322 321 320 318 320 322 324 325 325 325 325 325 323 326 323 320 312 311 311 311 310 309 309 308 308 307 306 306 305 303 301 300 301 301 301 301
315 316 317 316 313 316 318 320 320 320 320 320 322 321 321 322 321 319 321 323 325 326 326 325 326 325 324 320 314 313 311 310 309 309 308 307 306 306 306 306 305 303 302 300 299 300 299 299 300
318 318 318 318 315 315 317 319 321 320 320 319 319 319 320 321 319 317 317 318 320 322 324 322 320 320 318 315 313 312 310 309 308 308 308 307 306 306 306 305 303 301 300 300 298 298 299 298 299
321 317 316 316 316 320 315 320 319 321 322 322 320 320 319 319 318 316 315 314 314 315 315 314 314 313 313 313 312 311 311 311 309 308 307 306 306 306 304 302 301 300 298 296 297 297 298 298 298
320 317 318 317 319 318 321 320 318 321 324 323 321 319 319 318 318 317 315 314 312 312 312 312 312 312 312 311 311 310 309 309 308 307 307 306 305 303 302 301 300 299 297 295 295 297 296 296 296
317 320 320 319 321 325 322 324 324 321 322 322 320 319 318 317 316 315 314 313 313 312 312 312 312 312 311 311 310 309 308 306 305 303 303 301 300 300 300 300 299 299 297 296 296 295 295 296 296
319 321 323 324 326 324 320 323 323 318 317 322 321 319 318 317 317 316 315 313 313 312 311 311 310 309 309 308 307 304 301 300 299 299 299 299 299 298 299 299 299 298 297 296 296 295 295 296 295
320 320 328 326 328 325 319 326 323 318 317 318 319 319 318 318 317 316 315 314 314 312 310 309 309 308 305 303 302 301 300 300 299 299 298 298 298 298 298 299 299 297 297 296 296 296 296 295 295
320 321 317 321 317 322 319 320 318 318 318 318 320 319 319 318 316 316 315 314 312 310 309 309 307 304 302 301 300 300 300 299 299 299 299 298 298 298 298 298 298 296 295 296 296 296 295 294 293
317 316 323 319 322 318 317 320 321 322 320 319 320 320 318 315 313 311 310 308 307 306 306 305 303 301 300 300 300 299 299 298 298 298 298 298 298 298 298 298 297 295 294 295 295 294 293 292 292
319 319 317 318 317 317 318 316 317 319 320 320 320 318 316 312 309 307 305 304 302 301 301 300 300 300 301 300 298 298 299 298 298 297 296 296 296 296 297 298 297 294 295 295 294 293 292 290 289
315 317 317 319 317 316 318 318 314 316 317 317 317 313 311 308 306 305 304 304 304 303 302 302 302 301 301 299 298 295 294 294 295 294 293 293 293 293 295 296 295 295 294 294 292 291 289 288 287

GFSSGP_925_thetae_048.txt.gz
Theta_e
313 313 313 319 324 323 327 326 337 346 346 342 340 343 345 345 346 350 342 341 341 340 342 341 336 332 332 332 332 333 333 333 333 333 333 332 331 330 330 330 332 333 335 332 323 319 318 318 318
312 313 315 321 322 323 323 325 338 344 343 340 339 341 344 348 344 342 341 341 340 340 341 342 336 333 333 332 333 333 333 333 333 333 332 330 328 327 328 330 328 326 329 326 320 318 318 318 317
314 313 319 319 319 321 325 330 345 342 336 334 333 335 338 344 342 341 341 340 340 341 342 342 337 335 333 333 333 333 333 333 332 331 328 328 328 328 327 327 324 323 323 319 314 312 312 311 312
313 315 317 318 318 323 333 341 343 340 337 335 334 338 338 339 339 341 340 340 340 341 341 339 337 336 334 334 333 333 333 332 328 327 327 325 322 320 320 320 320 317 314 313 312 311 311 315 316
314 318 318 318 319 322 336 339 338 337 331 329 331 331 338 340 339 338 338 339 340 340 341 341 337 336 335 335 334 334 331 328 327 326 323 319 318 319 319 317 313 312 314 316 314 312 317 317 317
317 318 318 319 323 326 329 338 337 334 329 331 332 334 341 340 341 341 338 338 339 340 340 339 337 335 335 334 333 332 329 327 326 322 318 318 317 317 315 318 315 317 319 317 317 318 318 318 318
318 317 319 323 328 331 337 335 334 330 333 334 332 338 341 340 341 339 339 338 338 338 339 339 339 337 334 332 331 328 326 325 323 318 317 317 317 318 320 320 318 320 320 319 319 319 319 319 318
319 318 326 327 329 333 337 335 332 332 335 334 334 338 343 339 337 339 339 339 338 338 337 336 335 334 334 333 327 324 324 322 319 318 319 321 321 321 321 322 322 322 321 321 320 320 319 319 318
318 319 327 330 331 335 332 331 329 331 334 334 333 338 339 336 338 339 339 338 337 336 336 333 331 331 331 329 328 324 321 320 319 322 322 324 328 328 328 325 322 322 322 322 321 320 319 319 319
318 321 322 326 332 332 328 328 326 331 334 334 336 340 339 337 339 338 337 336 335 332 328 327 327 327 326 324 327 327 325 324 328 328 329 329 330 330 329 327 324 323 322 321 320 319 318 320 320
319 320 321 326 331 328 329 328 326 330 330 333 335 342 339 338 338 337 336 334 330 324 323 325 326 326 325 325 325 324 324 326 329 330 331 331 330 331 330 330 329 328 324 324 321 322 321 322 321
318 318 321 328 328 326 326 325 327 330 330 331 334 339 339 339 337 336 333 327 322 322 323 325 325 325 326 325 325 326 327 329 329 330 331 331 330 331 330 329 329 328 324 323 322 321 322 321 319
318 316 323 325 325 324 327 325 328 331 331 332 337 339 338 336 332 332 327 322 320 321 324 326 326 325 326 327 328 329 329 330 330 330 331 331 332 331 330 329 327 325 323 322 321 320 319 318 316
318 316 322 318 325 320 324 326 326 328 331 335 338 336 334 331 328 327 323 320 320 321 324 328 328 328 328 328 329 329 329 329 330 331 331 330 328 327 325 325 324 322 320 319 317 317 316 315 314
314 315 314 316 322 323 321 322 321 328 331 334 333 333 332 330 326 323 320 319 320 322 325 328 329 330 329 327 325 324 322 323 324 324 325 325 326 324 323 323 320 317 316 315 315 314 313 312 311
316 317 319 317 322 317 320 319 318 331 330 332 332 332 331 328 325 324 324 322 321 323 327 328 328 328 326 325 324 322 320 320 322 320 321 321 321 320 318 317 314 313 312 312 311 311 310 310 310
316 317 318 317 317 318 318 318 319 329 330 331 332 331 331 328 326 325 326 327 325 326 328 328 328 326 322 321 319 320 319 321 318 316 315 315 314 313 312 313 312 310 310 310 309 309 308 307 306
318 316 317 317 318 318 318 320 320 329 331 331 330 330 330 329 327 326 328 328 327 328 329 329 328 323 323 323 320 317 320 317 314 313 313 312 312 312 311 311 310 310 310 309 307 306 305 304 303
319 318 317 318 318 320 319 322 321 328 331 331 331 331 330 329 327 328 329 329 329 329 328 329 326 325 324 322 322 318 316 314 313 312 312 311 311 310 311 310 310 309 308 306 305 303 302 301 301
318 319 320 319 317 321 323 324 322 326 329 331 331 331 330 329 329 328 330 330 330 330 329 329 327 326 326 324 320 317 316 313 313 311 311 310 310 310 309 309 308 306 304 303 302 301 301 300 300
321 321 321 320 319 321 323 324 325 323 326 326 327 328 329 330 329 329 329 330 330 330 329 327 327 326 323 319 317 316 314 313 312 312 311 309 309 309 309 307 305 304 302 301 301 300 300 300 299
322 320 320 320 321 321 321 321 325 326 326 325 326 328 328 327 326 324 321 321 322 323 323 322 322 321 319 317 316 314 314 314 313 312 311 310 309 308 306 304 303 302 301 301 300 298 299 299 298
322 320 321 321 322 322 322 321 325 326 327 327 327 328 328 326 325 320 319 318 318 318 318 317 316 316 315 315 315 315 314 313 312 311 309 308 307 305 303 302 302 302 301 300 300 299 299 298 298
322 323 324 324 324 324 322 324 319 324 325 327 327 327 326 325 322 319 318 317 317 317 317 316 315 314 314 314 314 313 312 309 307 306 305 304 303 302 302 302 302 301 301 300 300 299 298 298 297
323 323 322 323 323 321 324 324 320 323 322 326 327 327 325 322 320 320 319 318 317 317 316 316 315 314 313 312 310 308 306 305 304 304 303 302 301 301 301 301 301 301 300 300 299 298 297 297 297
323 322 321 317 321 322 324 325 326 323 321 323 325 325 322 321 321 320 319 318 318 317 316 315 314 312 310 308 306 305 304 304 304 303 302 302 301 301 301 301 301 301 300 300 299 298 297 297 296
324 323 322 325 324 326 322 323 323 322 322 322 325 323 322 322 321 321 319 319 319 317 315 315 312 309 306 303 303 303 303 303 302 302 302 302 302 301 300 300 300 300 299 299 298 297 297 296 296
323 321 323 323 324 319 317 319 319 324 324 322 324 323 323 322 321 320 319 318 317 315 313 310 307 304 302 302 302 302 302 302 302 301 301 300 299 298 298 298 298 297 298 297 297 296 295 295 294
322 323 321 321 321 317 315 316 322 322 324 324 324 323 323 322 320 318 316 314 312 310 308 306 304 303 302 300 301 302 301 299 298 298 297 296 296 295 294 295 295 296 296 296 296 296 295 294 293
320 321 322 320 320 322 322 317 317 321 323 323 323 323 322 320 317 314 312 309 308 307 305 304 305 302 301 301 299 298 298 297 296 296 295 295 294 294 294 295 295 295 296 296 295 294 294 292 291

GFSSGP_925_thetae_051.txt.gz
Theta_e
315 317 316 317 322 322 325 327 329 345 345 342 341 343 346 349 351 354 341 341 342 343 342 337 332 332 330 329 328 328 329 331 332 333 333 332 332 331 330 331 332 333 334 331 323 319 318 319 317
317 315 314 320 321 323 327 328 329 346 345 342 341 343 344 350 345 344 343 341 342 343 341 339 332 332 332 331 331 332 333 333 333 333 332 331 329 328 330 330 326 326 329 328 319 314 313 312 311
314 314 318 319 321 321 325 327 344 342 340 338 337 336 340 344 342 341 341 341 341 342 342 339 333 332 333 332 333 333 333 333 333 332 329 327 328 328 327 324 322 323 323 315 312 311 312 314 316
315 315 318 321 321 321 324 339 339 339 337 335 337 339 335 339 336 340 340 340 341 341 341 337 334 333 333 333 333 333 334 333 331 328 328 327 323 321 322 322 319 315 314 312 311 312 316 316 316
315 318 319 321 322 321 325 340 338 336 335 333 332 336 338 338 330 336 340 340 341 341 342 339 336 335 334 334 333 334 333 330 327 328 324 320 319 319 320 316 313 314 317 315 313 317 317 317 316
316 318 321 323 323 323 327 336 337 333 332 331 330 334 336 334 336 336 337 339 340 339 340 339 336 335 335 334 334 333 330 327 327 323 319 319 318 317 316 316 315 319 317 317 317 318 317 317 316
317 319 321 323 325 327 329 337 337 333 335 335 329 335 341 338 338 339 338 339 340 341 340 340 339 336 336 335 333 330 327 326 323 319 318 317 316 319 320 317 320 319 319 319 319 318 318 317 316
317 321 321 324 327 330 333 335 332 334 331 330 333 336 341 340 340 330 325 336 338 339 339 339 338 337 336 335 330 328 325 323 320 318 319 320 320 320 322 324 322 321 321 320 319 318 318 317 316
319 321 322 332 331 332 334 334 332 331 330 334 334 336 335 341 341 335 336 338 338 337 336 333 332 332 332 333 328 324 323 320 319 320 322 327 328 329 329 326 322 322 322 322 320 319 318 317 322
318 321 324 327 333 337 333 331 329 330 332 333 338 342 340 339 341 339 338 338 337 336 332 331 331 330 328 325 327 327 324 324 327 328 328 330 330 331 330 327 324 324 323 322 320 319 318 322 322
318 321 323 325 332 331 328 330 327 326 326 328 333 342 340 339 338 338 337 337 335 329 326 327 328 327 324 325 325 325 324 328 330 332 332 331 330 331 331 329 331 330 327 325 323 323 322 323 322
320 321 320 326 327 325 327 326 325 325 330 326 339 338 339 338 338 337 337 334 326 324 325 326 326 326 326 324 323 324 325 328 329 331 333 333 332 332 331 329 328 328 326 324 323 322 324 323 321
319 321 326 327 324 326 326 325 328 328 326 329 336 336 338 336 336 335 332 325 322 323 325 327 326 327 329 328 329 330 330 331 331 332 331 329 329 328 328 329 328 326 325 324 323 322 321 320 320
320 323 324 324 325 325 328 327 327 328 328 333 335 335 334 332 332 329 324 323 323 324 328 328 328 328 330 332 332 331 330 329 329 329 331 332 331 331 329 327 326 325 322 321 320 319 318 318 317
318 323 322 321 326 325 325 324 324 328 329 331 332 332 330 328 327 325 323 323 324 325 329 330 329 331 331 330 328 326 325 324 323 323 326 328 329 327 327 325 323 320 318 317 316 316 315 315 315
319 319 320 320 322 325 323 322 324 328 329 329 329 329 328 326 324 323 322 322 323 326 329 331 331 331 329 326 325 325 322 320 319 320 319 321 320 320 321 319 317 315 313 313 313 313 313 312 311
318 319 320 319 321 321 322 320 323 327 329 330 329 329 328 327 325 326 325 324 323 325 330 331 332 329 325 322 320 321 322 317 319 318 315 314 314 313 315 315 314 313 312 312 312 310 309 308 307
318 319 320 320 321 320 319 321 326 328 327 331 331 330 330 328 328 328 328 328 327 327 330 332 331 325 323 321 322 321 320 317 319 316 314 314 314 314 313 313 313 312 311 311 309 308 306 305 304
318 318 318 318 318 318 318 321 323 328 328 330 331 331 331 330 329 329 330 330 330 331 332 331 328 327 327 326 325 322 321 318 315 314 314 314 313 313 313 312 312 311 309 308 307 305 303 303 302
320 319 318 319 318 320 320 321 323 328 329 329 330 331 331 331 331 331 332 332 332 332 331 330 329 328 328 325 325 323 319 316 315 314 314 313 313 312 311 312 310 309 307 305 304 303 303 302 301
320 321 321 320 320 319 322 324 325 326 328 329 330 330 331 332 333 333 333 332 331 330 330 331 328 327 325 322 320 319 317 316 314 315 314 313 312 311 311 309 308 306 304 303 303 302 301 301 300
321 322 321 321 322 321 322 322 326 326 328 329 330 331 332 332 331 331 331 331 331 329 327 325 324 324 321 319 317 317 315 316 316 315 314 313 312 310 308 306 304 304 303 303 302 301 301 300 300
324 322 322 320 321 323 323 320 326 328 328 328 330 330 331 329 329 326 325 325 324 324 323 323 322 320 319 318 317 317 317 316 315 314 312 310 309 307 306 304 303 304 303 302 302 301 301 300 299
323 323 323 323 322 324 321 323 323 327 326 328 328 329 329 329 326 322 321 320 321 321 320 319 318 318 317 317 317 317 316 314 312 310 308 307 305 304 303 303 303 303 302 302 301 301 300 299 299
322 323 326 326 323 324 324 324 321 325 324 326 328 329 329 329 324 322 321 320 321 320 320 319 318 317 317 317 315 313 311 309 308 308 307 305 303 303 303 302 302 301 301 301 301 301 300 299 298
323 323 323 321 321 321 324 319 324 326 323 325 328 328 329 326 323 322 321 321 320 320 320 319 318 317 316 314 311 309 308 308 307 306 304 304 303 303 303 302 301 300 300 300 300 300 300 299 298
324 322 323 323 325 326 319 323 326 324 324 325 327 328 328 324 323 323 321 321 321 320 320 319 318 315 312 309 307 306 306 305 305 304 304 303 302 301 299 299 299 299 298 298 298 299 299 298 297
323 323 323 322 324 321 319 319 323 324 324 325 327 328 325 324 323 323 322 321 321 320 319 318 316 312 307 306 305 303 303 304 304 303 301 300 299 298 297 296 296 296 296 297 297 297 297 297 296
324 322 321 323 323 323 317 318 321 321 323 323 325 326 325 324 324 323 322 322 321 320 317 314 310 307 306 304 303 303 304 302 300 300 299 297 297 296 296 295 295 296 296 296 296 297 296 295 295
322 322 322 324 322 321 324 320 319 321 322 322 323 324 324 324 324 323 322 319 318 316 313 310 308 306 304 303 303 301 300 300 299 298 297 297 296 296 296 295 296 296 295 295 295 295 295 294 293